Time,TemperatureF,DewpointF,PressureIn,WindDirection,WindDirectionDegrees,WindSpeedMPH,WindSpeedGustMPH,Humidity,HourlyPrecipIn,Conditions,Clouds,dailyrainin,SolarRadiationWatts/m^2,SoftwareType,DateUTC
2013-04-02 00:00:00,72.9,71.1,30.04,NNW,343,2.0,5.0,94,0.00,,FEW,0.00,0.00,VWS V14.01,2013-04-02 04:00:00,
2013-04-02 00:05:00,72.9,71.1,30.03,North,5,0.0,2.0,94,0.00,,FEW,0.00,0.00,VWS V14.01,2013-04-02 04:05:00,
2013-04-02 00:10:00,72.9,71.1,30.03,North,355,2.0,3.0,94,0.00,,FEW,0.00,0.00,VWS V14.01,2013-04-02 04:10:00,
2013-04-02 00:15:00,72.9,71.1,30.03,North,355,3.0,3.0,94,0.00,,FEW,0.00,0.00,VWS V14.01,2013-04-02 04:15:00,
2013-04-02 00:20:00,72.9,71.1,30.03,NNW,348,3.0,3.0,94,0.00,,FEW,0.00,0.00,VWS V14.01,2013-04-02 04:20:00,
2013-04-02 00:21:00,72.9,71.1,30.03,North,355,3.0,3.0,94,0.00,,FEW,0.00,0.00,VWS V14.01,2013-04-02 04:21:00,
2013-04-02 00:25:00,72.9,71.1,30.03,NNW,342,2.0,3.0,94,0.00,,FEW,0.00,0.00,VWS V14.01,2013-04-02 04:25:00,
2013-04-02 00:26:00,72.9,71.1,30.03,NNW,343,2.0,3.0,94,0.00,,FEW,0.00,0.00,VWS V14.01,2013-04-02 04:26:00,
2013-04-02 00:30:00,72.9,71.1,30.03,North,5,1.0,3.0,94,0.00,,FEW,0.00,0.00,VWS V14.01,2013-04-02 04:30:00,
2013-04-02 00:32:00,72.9,71.1,30.04,North,360,2.0,3.0,94,0.00,,FEW,0.00,0.00,VWS V14.01,2013-04-02 04:32:00,
2013-04-02 00:35:00,72.9,71.1,30.04,North,355,2.0,3.0,94,0.00,,FEW,0.00,0.00,VWS V14.01,2013-04-02 04:35:00,
2013-04-02 00:37:00,72.9,71.1,30.04,North,355,1.0,3.0,94,0.00,,FEW,0.00,0.00,VWS V14.01,2013-04-02 04:37:00,
2013-04-02 00:40:00,72.9,71.1,30.04,North,355,0.0,3.0,94,0.00,,FEW,0.00,0.00,VWS V14.01,2013-04-02 04:40:00,
2013-04-02 00:42:00,72.9,71.1,30.04,North,355,0.0,3.0,94,0.00,,FEW,0.00,0.00,VWS V14.01,2013-04-02 04:42:00,
2013-04-02 00:45:00,72.8,71.0,30.04,North,355,1.0,3.0,94,0.00,,FEW,0.00,0.00,VWS V14.01,2013-04-02 04:45:00,
2013-04-02 00:47:00,72.8,71.0,30.03,North,355,1.0,3.0,94,0.00,,FEW,0.00,0.00,VWS V14.01,2013-04-02 04:47:00,
2013-04-02 00:50:00,72.8,71.0,30.03,North,355,0.0,3.0,94,0.00,,FEW,0.00,0.00,VWS V14.01,2013-04-02 04:50:00,
2013-04-02 00:52:00,72.8,71.0,30.03,North,355,2.0,3.0,94,0.00,,FEW,0.00,0.00,VWS V14.01,2013-04-02 04:52:00,
2013-04-02 00:55:00,72.8,71.0,30.03,North,355,2.0,3.0,94,0.00,,FEW,0.00,0.00,VWS V14.01,2013-04-02 04:55:00,
2013-04-02 00:56:00,72.8,71.0,30.03,North,355,2.0,3.0,94,0.00,,FEW,0.00,0.00,VWS V14.01,2013-04-02 04:56:00,
2013-04-02 00:57:00,72.8,71.0,30.03,North,355,2.0,3.0,94,0.00,,FEW,0.00,0.00,VWS V14.01,2013-04-02 04:57:00,
2013-04-02 01:00:00,72.8,71.0,30.03,North,360,2.0,3.0,94,0.00,,FEW,0.00,0.00,VWS V14.01,2013-04-02 05:00:00,
2013-04-02 01:01:00,72.8,71.0,30.03,North,360,2.0,3.0,94,0.00,,FEW,0.00,0.00,VWS V14.01,2013-04-02 05:01:00,
2013-04-02 01:02:00,72.8,70.7,30.03,North,355,2.0,3.0,93,0.00,,FEW,0.00,0.00,VWS V14.01,2013-04-02 05:02:00,
2013-04-02 01:05:00,72.8,70.7,30.03,North,11,2.0,4.0,93,0.00,,FEW,0.00,0.00,VWS V14.01,2013-04-02 05:05:00,
2013-04-02 01:06:00,72.8,70.7,30.03,NNE,23,2.0,4.0,93,0.00,,FEW,0.00,0.00,VWS V14.01,2013-04-02 05:06:00,
2013-04-02 01:07:00,72.8,70.7,30.03,North,355,2.0,4.0,93,0.00,,FEW,0.00,0.00,VWS V14.01,2013-04-02 05:07:00,
2013-04-02 01:10:00,72.7,70.6,30.03,NNW,346,5.0,5.0,93,0.00,,FEW,0.00,0.00,VWS V14.01,2013-04-02 05:10:00,
2013-04-02 01:11:00,72.7,70.6,30.03,North,350,4.0,5.0,93,0.00,,FEW,0.00,0.00,VWS V14.01,2013-04-02 05:11:00,
2013-04-02 01:12:00,72.7,70.6,30.03,NNW,343,2.0,2.0,93,0.00,,FEW,0.00,0.00,VWS V14.01,2013-04-02 05:12:00,
2013-04-02 01:15:00,72.6,70.8,30.03,North,355,3.0,4.0,94,0.00,,FEW,0.00,0.00,VWS V14.01,2013-04-02 05:15:00,
2013-04-02 01:16:00,72.6,70.8,30.03,North,350,2.0,4.0,94,0.00,,FEW,0.00,0.00,VWS V14.01,2013-04-02 05:16:00,
2013-04-02 01:17:00,72.6,70.8,30.03,North,350,0.0,4.0,94,0.00,,FEW,0.00,0.00,VWS V14.01,2013-04-02 05:17:00,
2013-04-02 01:20:00,72.6,70.8,30.03,North,350,1.0,4.0,94,0.00,,FEW,0.00,0.00,VWS V14.01,2013-04-02 05:20:00,
2013-04-02 01:21:00,72.6,70.8,30.03,North,350,2.0,4.0,94,0.00,,FEW,0.00,0.00,VWS V14.01,2013-04-02 05:21:00,
2013-04-02 01:22:00,72.6,70.8,30.03,North,350,2.0,4.0,94,0.00,,FEW,0.00,0.00,VWS V14.01,2013-04-02 05:22:00,
2013-04-02 01:23:00,72.6,70.8,30.03,NNE,15,2.0,2.0,94,0.00,,FEW,0.00,0.00,VWS V14.01,2013-04-02 05:23:00,
2013-04-02 01:25:00,72.6,70.8,30.03,NNE,23,2.0,3.0,94,0.00,,FEW,0.00,0.00,VWS V14.01,2013-04-02 05:25:00,
2013-04-02 01:27:00,72.6,70.8,30.03,North,5,2.0,3.0,94,0.00,,FEW,0.00,0.00,VWS V14.01,2013-04-02 05:27:00,
2013-04-02 01:28:00,72.5,70.7,30.03,North,5,1.0,3.0,94,0.00,,FEW,0.00,0.00,VWS V14.01,2013-04-02 05:28:00,
2013-04-02 01:30:00,72.5,70.7,30.03,North,5,1.0,3.0,94,0.00,,FEW,0.00,0.00,VWS V14.01,2013-04-02 05:30:00,
2013-04-02 01:32:00,72.5,70.7,30.03,North,5,1.0,3.0,94,0.00,,FEW,0.00,0.00,VWS V14.01,2013-04-02 05:32:00,
2013-04-02 01:33:00,72.5,70.7,30.03,North,5,1.0,2.0,94,0.00,,FEW,0.00,0.00,VWS V14.01,2013-04-02 05:33:00,
2013-04-02 01:36:00,72.4,70.6,30.03,North,360,1.0,4.0,94,0.00,,FEW,0.00,0.00,VWS V14.01,2013-04-02 05:36:00,
2013-04-02 01:37:00,72.4,70.6,30.03,NNE,19,3.0,4.0,94,0.00,,FEW,0.00,0.00,VWS V14.01,2013-04-02 05:37:00,
2013-04-02 01:38:00,72.4,70.6,30.03,NNE,28,1.0,4.0,94,0.00,,FEW,0.00,0.00,VWS V14.01,2013-04-02 05:38:00,
2013-04-02 01:41:00,72.4,70.6,30.03,NNE,26,2.0,4.0,94,0.00,,FEW,0.00,0.00,VWS V14.01,2013-04-02 05:41:00,
2013-04-02 01:42:00,72.4,70.6,30.03,NNE,26,0.0,4.0,94,0.00,,FEW,0.00,0.00,VWS V14.01,2013-04-02 05:42:00,
2013-04-02 01:43:00,72.4,70.6,30.03,NNE,26,0.0,0.0,94,0.00,,FEW,0.00,0.00,VWS V14.01,2013-04-02 05:43:00,
2013-04-02 01:46:00,72.3,70.5,30.03,NNE,26,0.0,1.0,94,0.00,,FEW,0.00,0.00,VWS V14.01,2013-04-02 05:46:00,
2013-04-02 01:47:00,72.3,70.5,30.03,NNE,26,0.0,1.0,94,0.00,,FEW,0.00,0.00,VWS V14.01,2013-04-02 05:47:00,
2013-04-02 01:48:00,72.3,70.5,30.03,NNE,26,0.0,1.0,94,0.00,,FEW,0.00,0.00,VWS V14.01,2013-04-02 05:48:00,
2013-04-02 01:51:00,72.2,70.4,30.03,NNE,26,0.0,1.0,94,0.00,,FEW,0.00,0.00,VWS V14.01,2013-04-02 05:51:00,
2013-04-02 01:52:00,72.3,70.5,30.03,NNE,26,0.0,1.0,94,0.00,,FEW,0.00,0.00,VWS V14.01,2013-04-02 05:52:00,
2013-04-02 01:53:00,72.2,70.4,30.03,NNE,26,0.0,0.0,94,0.00,,FEW,0.00,0.00,VWS V14.01,2013-04-02 05:53:00,
2013-04-02 01:57:00,72.2,70.4,30.03,NNE,26,0.0,0.0,94,0.00,,FEW,0.00,0.00,VWS V14.01,2013-04-02 05:57:00,
2013-04-02 01:58:00,72.2,70.4,30.03,NNE,26,0.0,0.0,94,0.00,,FEW,0.00,0.00,VWS V14.01,2013-04-02 05:58:00,
2013-04-02 01:59:00,72.1,70.3,30.03,NNE,26,0.0,0.0,94,0.00,,FEW,0.00,0.00,VWS V14.01,2013-04-02 05:59:00,
2013-04-02 02:02:00,72.1,70.3,30.03,NNE,26,0.0,0.0,94,0.00,,FEW,0.00,0.00,VWS V14.01,2013-04-02 06:02:00,
2013-04-02 02:03:00,72.1,70.3,30.03,NNE,26,0.0,0.0,94,0.00,,FEW,0.00,0.00,VWS V14.01,2013-04-02 06:03:00,
2013-04-02 02:04:00,72.1,70.3,30.03,NNE,26,1.0,1.0,94,0.00,,FEW,0.00,0.00,VWS V14.01,2013-04-02 06:04:00,
2013-04-02 02:07:00,72.1,70.3,30.03,NNE,26,2.0,2.0,94,0.00,,FEW,0.00,0.00,VWS V14.01,2013-04-02 06:07:00,
2013-04-02 02:08:00,72.1,70.3,30.03,NNE,26,1.0,2.0,94,0.00,,FEW,0.00,0.00,VWS V14.01,2013-04-02 06:08:00,
2013-04-02 02:09:00,72.1,70.3,30.03,NNE,26,1.0,2.0,94,0.00,,FEW,0.00,0.00,VWS V14.01,2013-04-02 06:09:00,
2013-04-02 02:12:00,72.1,70.3,30.03,NNE,26,0.0,0.0,94,0.00,,FEW,0.00,0.00,VWS V14.01,2013-04-02 06:12:00,
2013-04-02 02:13:00,72.1,70.3,30.03,NNE,26,1.0,1.0,94,0.00,,FEW,0.00,0.00,VWS V14.01,2013-04-02 06:13:00,
2013-04-02 02:15:00,72.1,70.3,30.03,NNE,26,1.0,2.0,94,0.00,,FEW,0.00,0.00,VWS V14.01,2013-04-02 06:15:00,
2013-04-02 02:17:00,72.1,70.3,30.03,NNE,26,1.0,2.0,94,0.00,,FEW,0.00,0.00,VWS V14.01,2013-04-02 06:17:00,
2013-04-02 02:18:00,72.1,70.3,30.03,NNE,26,1.0,2.0,94,0.00,,FEW,0.00,0.00,VWS V14.01,2013-04-02 06:18:00,
2013-04-02 02:20:00,72.2,70.4,30.03,NNE,26,1.0,2.0,94,0.00,,FEW,0.00,0.00,VWS V14.01,2013-04-02 06:20:00,
2013-04-02 02:23:00,72.2,70.4,30.03,NNE,26,0.0,1.0,94,0.00,,FEW,0.00,0.00,VWS V14.01,2013-04-02 06:23:00,
2013-04-02 02:25:00,72.2,70.4,30.03,NNE,26,1.0,3.0,94,0.00,,FEW,0.00,0.00,VWS V14.01,2013-04-02 06:25:00,
2013-04-02 02:28:00,72.2,70.4,30.03,NNE,26,1.0,3.0,94,0.00,,FEW,0.00,0.00,VWS V14.01,2013-04-02 06:28:00,
2013-04-02 02:30:00,72.2,70.4,30.03,NNE,26,0.0,3.0,94,0.00,,FEW,0.00,0.00,VWS V14.01,2013-04-02 06:30:00,
2013-04-02 02:33:00,72.2,70.4,30.03,NNE,26,1.0,1.0,94,0.00,,FEW,0.00,0.00,VWS V14.01,2013-04-02 06:33:00,
2013-04-02 02:35:00,72.2,70.4,30.03,NNE,26,0.0,1.0,94,0.00,,FEW,0.00,0.00,VWS V14.01,2013-04-02 06:35:00,
2013-04-02 02:38:00,72.1,70.3,30.03,NNE,26,2.0,2.0,94,0.00,,FEW,0.00,0.00,VWS V14.01,2013-04-02 06:38:00,
2013-04-02 02:39:00,72.1,70.3,30.03,NNE,26,2.0,2.0,94,0.00,,FEW,0.00,0.00,VWS V14.01,2013-04-02 06:39:00,
2013-04-02 02:40:00,72.1,70.3,30.03,NNE,26,1.0,3.0,94,0.00,,FEW,0.00,0.00,VWS V14.01,2013-04-02 06:40:00,
2013-04-02 02:43:00,72.1,70.3,30.03,NNE,26,0.0,1.0,94,0.00,,FEW,0.00,0.00,VWS V14.01,2013-04-02 06:43:00,
2013-04-02 02:44:00,72.1,70.3,30.03,NNE,26,3.0,3.0,94,0.00,,FEW,0.00,0.00,VWS V14.01,2013-04-02 06:44:00,
2013-04-02 02:46:00,72.1,70.3,30.03,NNE,26,1.0,3.0,94,0.00,,FEW,0.00,0.00,VWS V14.01,2013-04-02 06:46:00,
2013-04-02 02:48:00,72.1,70.3,30.02,NNW,343,2.0,4.0,94,0.00,,FEW,0.00,0.00,VWS V14.01,2013-04-02 06:48:00,
2013-04-02 02:49:00,72.1,70.3,30.02,NNW,342,1.0,4.0,94,0.00,,FEW,0.00,0.00,VWS V14.01,2013-04-02 06:49:00,
2013-04-02 02:51:00,72.0,70.2,30.02,NNW,342,2.0,4.0,94,0.00,,FEW,0.00,0.00,VWS V14.01,2013-04-02 06:51:00,
2013-04-02 02:53:00,72.1,70.3,30.02,NNW,342,3.0,3.0,94,0.00,,FEW,0.00,0.00,VWS V14.01,2013-04-02 06:53:00,
2013-04-02 02:54:00,72.0,70.2,30.02,NNW,342,2.0,3.0,94,0.00,,FEW,0.00,0.00,VWS V14.01,2013-04-02 06:54:00,
2013-04-02 02:56:00,72.0,70.2,30.02,North,5,2.0,3.0,94,0.00,,FEW,0.00,0.00,VWS V14.01,2013-04-02 06:56:00,
2013-04-02 02:58:00,72.1,70.3,30.02,North,355,2.0,3.0,94,0.00,,FEW,0.00,0.00,VWS V14.01,2013-04-02 06:58:00,
2013-04-02 02:59:00,72.1,70.3,30.02,North,355,2.0,3.0,94,0.00,,FEW,0.00,0.00,VWS V14.01,2013-04-02 06:59:00,
2013-04-02 03:02:00,72.0,70.2,30.02,North,355,3.0,4.0,94,0.00,,FEW,0.00,0.00,VWS V14.01,2013-04-02 07:02:00,
2013-04-02 03:03:00,72.0,70.2,30.02,North,355,2.0,4.0,94,0.00,,FEW,0.00,0.00,VWS V14.01,2013-04-02 07:03:00,
2013-04-02 03:04:00,72.0,70.2,30.02,North,350,3.0,4.0,94,0.00,,FEW,0.00,0.00,VWS V14.01,2013-04-02 07:04:00,
2013-04-02 03:05:00,72.0,70.2,30.02,North,360,2.0,4.0,94,0.00,,FEW,0.00,0.00,VWS V14.01,2013-04-02 07:05:00,
2013-04-02 03:07:00,72.0,70.2,30.02,North,355,2.0,4.0,94,0.00,,FEW,0.00,0.00,VWS V14.01,2013-04-02 07:07:00,
2013-04-02 03:08:00,72.0,70.2,30.02,North,355,2.0,4.0,94,0.00,,FEW,0.00,0.00,VWS V14.01,2013-04-02 07:08:00,
2013-04-02 03:09:00,72.0,70.2,30.02,North,355,2.0,4.0,94,0.00,,FEW,0.00,0.00,VWS V14.01,2013-04-02 07:09:00,
2013-04-02 03:10:00,72.0,70.2,30.02,North,355,0.0,4.0,94,0.00,,FEW,0.00,0.00,VWS V14.01,2013-04-02 07:10:00,
2013-04-02 03:12:00,72.0,70.2,30.02,North,355,0.0,4.0,94,0.00,,FEW,0.00,0.00,VWS V14.01,2013-04-02 07:12:00,
2013-04-02 03:14:00,72.0,70.2,30.02,North,355,1.0,3.0,94,0.00,,FEW,0.00,0.00,VWS V14.01,2013-04-02 07:14:00,
2013-04-02 03:15:00,72.0,70.2,30.02,NNW,345,4.0,4.0,94,0.00,,FEW,0.00,0.00,VWS V14.01,2013-04-02 07:15:00,
2013-04-02 03:17:00,72.0,70.2,30.02,NNW,348,4.0,4.0,94,0.00,,FEW,0.00,0.00,VWS V14.01,2013-04-02 07:17:00,
2013-04-02 03:19:00,72.0,70.2,30.02,NNW,341,3.0,4.0,94,0.00,,FEW,0.00,0.00,VWS V14.01,2013-04-02 07:19:00,
2013-04-02 03:20:00,72.0,70.2,30.02,North,360,2.0,4.0,94,0.00,,FEW,0.00,0.00,VWS V14.01,2013-04-02 07:20:00,
2013-04-02 03:22:00,72.0,70.2,30.02,North,360,2.0,2.0,94,0.00,,FEW,0.00,0.00,VWS V14.01,2013-04-02 07:22:00,
2013-04-02 03:24:00,72.0,70.2,30.02,North,355,1.0,3.0,94,0.00,,FEW,0.00,0.00,VWS V14.01,2013-04-02 07:24:00,
2013-04-02 03:25:00,72.0,70.2,30.02,North,355,2.0,3.0,94,0.00,,FEW,0.00,0.00,VWS V14.01,2013-04-02 07:25:00,
2013-04-02 03:27:00,72.0,70.2,30.02,North,355,3.0,3.0,94,0.00,,FEW,0.00,0.00,VWS V14.01,2013-04-02 07:27:00,
2013-04-02 03:29:00,72.0,70.2,30.02,North,355,2.0,3.0,94,0.00,,FEW,0.00,0.00,VWS V14.01,2013-04-02 07:29:00,
2013-04-02 03:30:00,72.0,70.2,30.02,North,355,1.0,3.0,94,0.00,,FEW,0.00,0.00,VWS V14.01,2013-04-02 07:30:00,
2013-04-02 03:32:00,72.0,70.2,30.01,North,355,1.0,2.0,94,0.00,,FEW,0.00,0.00,VWS V14.01,2013-04-02 07:32:00,
2013-04-02 03:34:00,72.0,70.2,30.01,North,355,2.0,2.0,94,0.00,,FEW,0.00,0.00,VWS V14.01,2013-04-02 07:34:00,
2013-04-02 03:35:00,71.9,70.1,30.01,North,355,2.0,2.0,94,0.00,,FEW,0.00,0.00,VWS V14.01,2013-04-02 07:35:00,
2013-04-02 03:36:00,71.9,70.1,30.01,North,355,1.0,2.0,94,0.00,,FEW,0.00,0.00,VWS V14.01,2013-04-02 07:36:00,
2013-04-02 03:37:00,71.9,70.1,30.01,North,355,1.0,2.0,94,0.00,,FEW,0.00,0.00,VWS V14.01,2013-04-02 07:37:00,
2013-04-02 03:39:00,71.9,70.1,30.01,North,360,2.0,3.0,94,0.00,,FEW,0.00,0.00,VWS V14.01,2013-04-02 07:39:00,
2013-04-02 03:40:00,71.9,70.1,30.01,North,360,1.0,3.0,94,0.00,,FEW,0.00,0.00,VWS V14.01,2013-04-02 07:40:00,
2013-04-02 03:41:00,71.9,70.1,30.01,North,360,3.0,3.0,94,0.00,,FEW,0.00,0.00,VWS V14.01,2013-04-02 07:41:00,
2013-04-02 03:43:00,71.9,70.1,30.01,North,360,2.0,2.0,94,0.00,,FEW,0.00,0.00,VWS V14.01,2013-04-02 07:43:00,
2013-04-02 03:45:00,71.9,70.1,30.01,North,355,1.0,3.0,94,0.00,,FEW,0.00,0.00,VWS V14.01,2013-04-02 07:45:00,
2013-04-02 03:47:00,71.8,70.0,30.00,North,355,1.0,3.0,94,0.00,,FEW,0.00,0.00,VWS V14.01,2013-04-02 07:47:00,
2013-04-02 03:48:00,71.8,70.0,30.00,North,355,1.0,3.0,94,0.00,,FEW,0.00,0.00,VWS V14.01,2013-04-02 07:48:00,
2013-04-02 03:50:00,71.8,70.0,30.00,North,355,3.0,3.0,94,0.00,,FEW,0.00,0.00,VWS V14.01,2013-04-02 07:50:00,
2013-04-02 03:52:00,71.8,70.0,30.00,NNW,344,2.0,3.0,94,0.00,,FEW,0.00,0.00,VWS V14.01,2013-04-02 07:52:00,
2013-04-02 03:53:00,71.9,70.1,30.00,NNW,342,1.0,3.0,94,0.00,,FEW,0.00,0.00,VWS V14.01,2013-04-02 07:53:00,
2013-04-02 03:55:00,71.8,70.3,30.00,NNW,346,2.0,3.0,95,0.00,,FEW,0.00,0.00,VWS V14.01,2013-04-02 07:55:00,
2013-04-02 03:57:00,71.8,70.0,30.00,North,355,2.0,3.0,94,0.00,,FEW,0.00,0.00,VWS V14.01,2013-04-02 07:57:00,
2013-04-02 03:58:00,71.8,70.0,30.00,North,355,2.0,4.0,94,0.00,,FEW,0.00,0.00,VWS V14.01,2013-04-02 07:58:00,
2013-04-02 04:00:00,71.8,70.0,30.00,NNE,13,1.0,4.0,94,0.00,,FEW,0.00,0.00,VWS V14.01,2013-04-02 08:00:00,
2013-04-02 04:02:00,71.8,70.3,30.00,North,355,1.0,3.0,95,0.00,,FEW,0.00,0.00,VWS V14.01,2013-04-02 08:02:00,
2013-04-02 04:03:00,71.8,70.3,30.00,NNE,15,2.0,3.0,95,0.00,,FEW,0.00,0.00,VWS V14.01,2013-04-02 08:03:00,
2013-04-02 04:05:00,71.8,70.3,30.00,NNE,16,2.0,3.0,95,0.00,,FEW,0.00,0.00,VWS V14.01,2013-04-02 08:05:00,
2013-04-02 04:08:00,71.8,70.3,30.00,North,9,0.0,3.0,95,0.00,,FEW,0.00,0.00,VWS V14.01,2013-04-02 08:08:00,
2013-04-02 04:10:00,71.8,70.3,30.00,North,355,2.0,4.0,95,0.00,,FEW,0.00,0.00,VWS V14.01,2013-04-02 08:10:00,
2013-04-02 04:13:00,71.8,70.3,30.00,North,11,2.0,3.0,95,0.00,,FEW,0.00,0.00,VWS V14.01,2013-04-02 08:13:00,
2013-04-02 04:14:00,71.8,70.3,30.00,North,11,2.0,3.0,95,0.00,,FEW,0.00,0.00,VWS V14.01,2013-04-02 08:14:00,
2013-04-02 04:15:00,71.7,70.2,30.00,North,355,2.0,4.0,95,0.00,,FEW,0.00,0.00,VWS V14.01,2013-04-02 08:15:00,
2013-04-02 04:19:00,71.7,70.2,30.00,North,360,3.0,4.0,95,0.00,,FEW,0.00,0.00,VWS V14.01,2013-04-02 08:19:00,
2013-04-02 04:20:00,71.7,70.2,30.00,North,351,2.0,4.0,95,0.00,,FEW,0.00,0.00,VWS V14.01,2013-04-02 08:20:00,
2013-04-02 04:21:00,71.7,70.2,30.00,North,351,2.0,4.0,95,0.00,,FEW,0.00,0.00,VWS V14.01,2013-04-02 08:21:00,
2013-04-02 04:24:00,71.7,70.2,30.00,North,5,1.0,2.0,95,0.00,,FEW,0.00,0.00,VWS V14.01,2013-04-02 08:24:00,
2013-04-02 04:25:00,71.7,70.2,30.00,North,5,2.0,2.0,95,0.00,,FEW,0.00,0.00,VWS V14.01,2013-04-02 08:25:00,
2013-04-02 04:26:00,71.7,70.2,30.00,North,5,1.0,2.0,95,0.00,,FEW,0.00,0.00,VWS V14.01,2013-04-02 08:26:00,
2013-04-02 04:29:00,71.7,70.2,30.00,North,11,2.0,2.0,95,0.00,,FEW,0.00,0.00,VWS V14.01,2013-04-02 08:29:00,
2013-04-02 04:30:00,71.6,70.1,30.00,North,11,2.0,2.0,95,0.00,,FEW,0.00,0.00,VWS V14.01,2013-04-02 08:30:00,
2013-04-02 04:31:00,71.6,70.1,30.00,North,9,2.0,3.0,95,0.00,,FEW,0.00,0.00,VWS V14.01,2013-04-02 08:31:00,
2013-04-02 04:34:00,71.6,70.1,30.00,North,360,1.0,2.0,95,0.00,,FEW,0.00,0.00,VWS V14.01,2013-04-02 08:34:00,
2013-04-02 04:35:00,71.6,70.1,30.00,North,360,1.0,2.0,95,0.00,,FEW,0.00,0.00,VWS V14.01,2013-04-02 08:35:00,
2013-04-02 04:36:00,71.6,70.1,30.00,North,355,1.0,3.0,95,0.00,,FEW,0.00,0.00,VWS V14.01,2013-04-02 08:36:00,
2013-04-02 04:39:00,71.6,70.1,30.00,North,350,1.0,3.0,95,0.00,,FEW,0.00,0.00,VWS V14.01,2013-04-02 08:39:00,
2013-04-02 04:40:00,71.6,70.1,30.00,North,349,0.0,3.0,95,0.00,,FEW,0.00,0.00,VWS V14.01,2013-04-02 08:40:00,
2013-04-02 04:41:00,71.5,70.0,30.00,North,5,2.0,3.0,95,0.00,,FEW,0.00,0.00,VWS V14.01,2013-04-02 08:41:00,
2013-04-02 04:44:00,71.5,70.0,30.00,North,5,0.0,2.0,95,0.00,,FEW,0.00,0.00,VWS V14.01,2013-04-02 08:44:00,
2013-04-02 04:45:00,71.5,70.0,30.00,North,5,1.0,2.0,95,0.00,,FEW,0.00,0.00,VWS V14.01,2013-04-02 08:45:00,
2013-04-02 04:46:00,71.4,69.9,30.00,NNW,333,2.0,4.0,95,0.00,,FEW,0.00,0.00,VWS V14.01,2013-04-02 08:46:00,
2013-04-02 04:49:00,71.4,69.9,30.00,North,5,1.0,4.0,95,0.00,,FEW,0.00,0.00,VWS V14.01,2013-04-02 08:49:00,
2013-04-02 04:50:00,71.4,69.9,30.00,North,11,3.0,4.0,95,0.00,,FEW,0.00,0.00,VWS V14.01,2013-04-02 08:50:00,
2013-04-02 04:52:00,71.3,69.8,30.00,NNE,19,3.0,4.0,95,0.00,,FEW,0.00,0.00,VWS V14.01,2013-04-02 08:52:00,
2013-04-02 04:54:00,71.3,69.8,30.00,NNE,22,3.0,3.0,95,0.00,,FEW,0.00,0.00,VWS V14.01,2013-04-02 08:54:00,
2013-04-02 04:55:00,71.3,69.8,30.00,NNE,21,2.0,3.0,95,0.00,,FEW,0.00,0.00,VWS V14.01,2013-04-02 08:55:00,
2013-04-02 04:56:00,71.3,69.8,30.00,NNE,20,2.0,3.0,95,0.00,,FEW,0.00,0.00,VWS V14.01,2013-04-02 08:56:00,
2013-04-02 04:57:00,71.3,69.8,30.00,NNE,20,2.0,3.0,95,0.00,,FEW,0.00,0.00,VWS V14.01,2013-04-02 08:57:00,
2013-04-02 04:59:00,71.2,69.7,30.00,NNE,28,2.0,3.0,95,0.00,,FEW,0.00,0.00,VWS V14.01,2013-04-02 08:59:00,
2013-04-02 05:00:00,71.2,69.7,30.00,NNE,28,1.0,3.0,95,0.00,,FEW,0.00,0.00,VWS V14.01,2013-04-02 09:00:00,
2013-04-02 05:01:00,71.2,69.7,30.00,NNE,17,2.0,3.0,95,0.00,,FEW,0.00,0.00,VWS V14.01,2013-04-02 09:01:00,
2013-04-02 05:02:00,71.2,69.7,29.99,NNE,17,2.0,3.0,95,0.00,,FEW,0.00,0.00,VWS V14.01,2013-04-02 09:02:00,
2013-04-02 05:04:00,71.2,69.7,29.99,NNE,22,2.0,4.0,95,0.00,,FEW,0.00,0.00,VWS V14.01,2013-04-02 09:04:00,
2013-04-02 05:05:00,71.2,69.7,29.99,NNE,22,2.0,4.0,95,0.00,,FEW,0.00,0.00,VWS V14.01,2013-04-02 09:05:00,
2013-04-02 05:06:00,71.2,69.7,29.99,NNE,21,1.0,4.0,95,0.00,,FEW,0.00,0.00,VWS V14.01,2013-04-02 09:06:00,
2013-04-02 05:08:00,71.2,69.7,29.99,NNE,17,1.0,4.0,95,0.00,,FEW,0.00,0.00,VWS V14.01,2013-04-02 09:08:00,
2013-04-02 05:09:00,71.2,69.7,29.99,NNE,19,3.0,4.0,95,0.00,,FEW,0.00,0.00,VWS V14.01,2013-04-02 09:09:00,
2013-04-02 05:10:00,71.2,69.7,29.99,NNE,19,0.0,4.0,95,0.00,,FEW,0.00,0.00,VWS V14.01,2013-04-02 09:10:00,
2013-04-02 05:12:00,71.2,69.7,29.99,NNE,17,3.0,4.0,95,0.00,,FEW,0.00,0.00,VWS V14.01,2013-04-02 09:12:00,
2013-04-02 05:13:00,71.2,69.7,29.99,NNE,17,1.0,1.0,95,0.00,,FEW,0.00,0.00,VWS V14.01,2013-04-02 09:13:00,
2013-04-02 05:15:00,71.1,69.6,29.99,NNE,17,0.0,1.0,95,0.00,,FEW,0.00,0.00,VWS V14.01,2013-04-02 09:15:00,
2013-04-02 05:17:00,71.1,69.6,29.99,NNE,25,3.0,3.0,95,0.00,,FEW,0.00,0.00,VWS V14.01,2013-04-02 09:17:00,
2013-04-02 05:18:00,71.1,69.6,29.99,North,9,3.0,3.0,95,0.00,,FEW,0.00,0.00,VWS V14.01,2013-04-02 09:18:00,
2013-04-02 05:20:00,71.1,69.6,29.99,NNE,21,2.0,4.0,95,0.00,,FEW,0.00,0.00,VWS V14.01,2013-04-02 09:20:00,
2013-04-02 05:21:00,71.1,69.6,29.99,NNE,21,1.0,4.0,95,0.00,,FEW,0.00,0.00,VWS V14.01,2013-04-02 09:21:00,
2013-04-02 05:22:00,71.1,69.6,29.99,NNE,32,2.0,4.0,95,0.00,,FEW,0.00,0.00,VWS V14.01,2013-04-02 09:22:00,
2013-04-02 05:23:00,71.1,69.6,29.99,NNE,22,0.0,4.0,95,0.00,,FEW,0.00,0.00,VWS V14.01,2013-04-02 09:23:00,
2013-04-02 05:25:00,71.0,69.5,29.99,North,355,2.0,4.0,95,0.00,,FEW,0.00,0.00,VWS V14.01,2013-04-02 09:25:00,
2013-04-02 05:26:00,71.1,69.6,29.99,NNE,21,2.0,4.0,95,0.00,,FEW,0.00,0.00,VWS V14.01,2013-04-02 09:26:00,
2013-04-02 05:27:00,71.0,69.5,29.99,NNE,15,2.0,4.0,95,0.00,,FEW,0.00,0.00,VWS V14.01,2013-04-02 09:27:00,
2013-04-02 05:28:00,71.0,69.5,29.99,North,350,2.0,4.0,95,0.00,,FEW,0.00,0.00,VWS V14.01,2013-04-02 09:28:00,
2013-04-02 05:30:00,70.9,69.4,29.99,NNE,19,3.0,4.0,95,0.00,,FEW,0.00,0.00,VWS V14.01,2013-04-02 09:30:00,
2013-04-02 05:31:00,70.9,69.4,29.99,NNE,19,3.0,4.0,95,0.00,,FEW,0.00,0.00,VWS V14.01,2013-04-02 09:31:00,
2013-04-02 05:32:00,70.9,69.4,29.99,NNE,15,3.0,4.0,95,0.00,,FEW,0.00,0.00,VWS V14.01,2013-04-02 09:32:00,
2013-04-02 05:33:00,70.9,69.4,29.99,North,5,0.0,3.0,95,0.00,,FEW,0.00,0.00,VWS V14.01,2013-04-02 09:33:00,
2013-04-02 05:35:00,70.8,69.3,29.99,NNE,17,1.0,4.0,95,0.00,,FEW,0.00,0.00,VWS V14.01,2013-04-02 09:35:00,
2013-04-02 05:36:00,70.8,69.3,29.99,NNE,17,2.0,4.0,95,0.00,,FEW,0.00,0.00,VWS V14.01,2013-04-02 09:36:00,
2013-04-02 05:37:00,70.8,69.3,29.99,NNE,17,3.0,4.0,95,0.00,,FEW,0.00,0.00,VWS V14.01,2013-04-02 09:37:00,
2013-04-02 05:38:00,70.7,69.2,29.99,NNE,17,2.0,4.0,95,0.00,,FEW,0.00,0.00,VWS V14.01,2013-04-02 09:38:00,
2013-04-02 05:40:00,70.7,69.2,29.99,NNE,17,1.0,4.0,95,0.00,,FEW,0.00,0.00,VWS V14.01,2013-04-02 09:40:00,
2013-04-02 05:41:00,70.7,69.2,29.99,NNE,17,0.0,4.0,95,0.00,,FEW,0.00,0.00,VWS V14.01,2013-04-02 09:41:00,
2013-04-02 05:42:00,70.7,69.2,29.99,NNE,18,2.0,4.0,95,0.00,,FEW,0.00,0.00,VWS V14.01,2013-04-02 09:42:00,
2013-04-02 05:44:00,70.7,69.2,29.99,NNE,18,2.0,4.0,95,0.00,,FEW,0.00,0.00,VWS V14.01,2013-04-02 09:44:00,
2013-04-02 05:45:00,70.6,69.1,29.99,NNE,26,1.0,4.0,95,0.00,,FEW,0.00,0.00,VWS V14.01,2013-04-02 09:45:00,
2013-04-02 05:46:00,70.6,69.1,30.00,NNE,18,1.0,4.0,95,0.00,,FEW,0.00,0.00,VWS V14.01,2013-04-02 09:46:00,
2013-04-02 05:47:00,70.6,69.1,30.00,NNE,18,1.0,4.0,95,0.00,,FEW,0.00,0.00,VWS V14.01,2013-04-02 09:47:00,
2013-04-02 05:49:00,70.6,69.1,30.00,NNE,18,0.0,4.0,95,0.00,,FEW,0.00,0.00,VWS V14.01,2013-04-02 09:49:00,
2013-04-02 05:50:00,70.6,69.1,30.00,NNE,18,0.0,4.0,95,0.00,,FEW,0.00,0.00,VWS V14.01,2013-04-02 09:50:00,
2013-04-02 05:52:00,70.6,69.1,30.00,NNE,32,1.0,4.0,95,0.00,,FEW,0.00,0.00,VWS V14.01,2013-04-02 09:52:00,
2013-04-02 05:54:00,70.6,69.1,30.00,NNE,32,2.0,2.0,95,0.00,,FEW,0.00,0.00,VWS V14.01,2013-04-02 09:54:00,
2013-04-02 05:56:00,70.6,69.1,30.00,NNE,32,0.0,2.0,95,0.00,,FEW,0.00,0.00,VWS V14.01,2013-04-02 09:56:00,
2013-04-02 05:57:00,70.6,69.1,30.00,NNE,32,1.0,2.0,95,0.00,,FEW,0.00,0.00,VWS V14.01,2013-04-02 09:57:00,
2013-04-02 05:59:00,70.6,69.1,30.00,NNE,32,0.0,2.0,95,0.00,,FEW,0.00,0.00,VWS V14.01,2013-04-02 09:59:00,
2013-04-02 06:01:00,70.6,69.1,30.00,NNE,32,0.0,2.0,95,0.00,,FEW,0.00,0.00,VWS V14.01,2013-04-02 10:01:00,
2013-04-02 06:02:00,70.5,69.0,30.00,NNE,32,0.0,2.0,95,0.00,,FEW,0.00,0.00,VWS V14.01,2013-04-02 10:02:00,
2013-04-02 06:03:00,70.6,69.1,30.00,NNE,32,0.0,1.0,95,0.00,,FEW,0.00,0.00,VWS V14.01,2013-04-02 10:03:00,
2013-04-02 06:04:00,70.5,69.0,30.00,NNE,32,0.0,2.0,95,0.00,,FEW,0.00,0.00,VWS V14.01,2013-04-02 10:04:00,
2013-04-02 06:06:00,70.5,68.7,30.00,NNE,32,2.0,2.0,94,0.00,,FEW,0.00,0.00,VWS V14.01,2013-04-02 10:06:00,
2013-04-02 06:07:00,70.5,68.7,30.00,NNE,31,1.0,3.0,94,0.00,,FEW,0.00,0.00,VWS V14.01,2013-04-02 10:07:00,
2013-04-02 06:08:00,70.5,69.0,30.00,NNE,31,1.0,3.0,95,0.00,,FEW,0.00,0.00,VWS V14.01,2013-04-02 10:08:00,
2013-04-02 06:09:00,70.5,69.0,30.00,NNE,31,1.0,3.0,95,0.00,,FEW,0.00,0.00,VWS V14.01,2013-04-02 10:09:00,
2013-04-02 06:11:00,70.5,69.0,30.00,NNE,31,0.0,3.0,95,0.00,,FEW,0.00,0.00,VWS V14.01,2013-04-02 10:11:00,
2013-04-02 06:12:00,70.5,68.7,30.00,NNE,30,2.0,2.0,94,0.00,,FEW,0.00,0.00,VWS V14.01,2013-04-02 10:12:00,
2013-04-02 06:13:00,70.5,68.7,30.00,NNE,30,1.0,2.0,94,0.00,,FEW,0.00,0.00,VWS V14.01,2013-04-02 10:13:00,
2013-04-02 06:14:00,70.5,68.7,30.00,NNE,30,0.0,2.0,94,0.00,,FEW,0.00,0.00,VWS V14.01,2013-04-02 10:14:00,
2013-04-02 06:16:00,70.5,68.7,30.00,NNE,30,2.0,2.0,94,0.00,,FEW,0.00,0.00,VWS V14.01,2013-04-02 10:16:00,
2013-04-02 06:17:00,70.5,68.7,30.00,NNE,30,2.0,2.0,94,0.00,,FEW,0.00,0.00,VWS V14.01,2013-04-02 10:17:00,
2013-04-02 06:18:00,70.5,68.7,30.00,NNE,30,0.0,2.0,94,0.00,,FEW,0.00,0.00,VWS V14.01,2013-04-02 10:18:00,
2013-04-02 06:19:00,70.5,68.7,30.00,NNE,30,1.0,2.0,94,0.00,,FEW,0.00,0.00,VWS V14.01,2013-04-02 10:19:00,
2013-04-02 06:22:00,70.4,68.6,30.00,NNE,30,1.0,2.0,94,0.00,,FEW,0.00,0.00,VWS V14.01,2013-04-02 10:22:00,
2013-04-02 06:23:00,70.4,68.9,30.00,NNE,30,0.0,1.0,95,0.00,,FEW,0.00,0.00,VWS V14.01,2013-04-02 10:23:00,
2013-04-02 06:25:00,70.4,68.9,30.00,NNE,30,0.0,1.0,95,0.00,,FEW,0.00,0.00,VWS V14.01,2013-04-02 10:25:00,
2013-04-02 06:27:00,70.4,68.6,30.00,NNE,30,0.0,1.0,94,0.00,,FEW,0.00,0.00,VWS V14.01,2013-04-02 10:27:00,
2013-04-02 06:28:00,70.4,68.9,30.00,NNE,30,0.0,1.0,95,0.00,,FEW,0.00,0.00,VWS V14.01,2013-04-02 10:28:00,
2013-04-02 06:29:00,70.4,68.9,30.00,NNE,30,0.0,1.0,95,0.00,,FEW,0.00,0.00,VWS V14.01,2013-04-02 10:29:00,
2013-04-02 06:30:00,70.4,68.9,30.00,NNE,30,0.0,1.0,95,0.00,,FEW,0.00,0.00,VWS V14.01,2013-04-02 10:30:00,
2013-04-02 06:32:00,70.4,68.6,30.01,NNE,30,0.0,1.0,94,0.00,,FEW,0.00,0.00,VWS V14.01,2013-04-02 10:32:00,
2013-04-02 06:33:00,70.4,68.6,30.01,NNE,30,0.0,0.0,94,0.00,,FEW,0.00,0.00,VWS V14.01,2013-04-02 10:33:00,
2013-04-02 06:34:00,70.3,68.5,30.01,NNE,30,0.0,0.0,94,0.00,,FEW,0.00,0.00,VWS V14.01,2013-04-02 10:34:00,
2013-04-02 06:35:00,70.3,68.5,30.01,NNE,30,0.0,0.0,94,0.00,,FEW,0.00,0.00,VWS V14.01,2013-04-02 10:35:00,
2013-04-02 06:38:00,70.3,68.5,30.01,NNE,30,0.0,2.0,94,0.00,,FEW,0.00,0.00,VWS V14.01,2013-04-02 10:38:00,
2013-04-02 06:39:00,70.3,68.5,30.01,NNE,30,1.0,3.0,94,0.00,,FEW,0.00,0.00,VWS V14.01,2013-04-02 10:39:00,
2013-04-02 06:40:00,70.3,68.8,30.01,NNE,30,2.0,3.0,95,0.00,,FEW,0.00,0.00,VWS V14.01,2013-04-02 10:40:00,
2013-04-02 06:43:00,70.3,68.8,30.01,NNE,30,1.0,3.0,95,0.00,,FEW,0.00,0.00,VWS V14.01,2013-04-02 10:43:00,
2013-04-02 06:44:00,70.3,68.8,30.01,NNE,22,0.0,4.0,95,0.00,,FEW,0.00,0.00,VWS V14.01,2013-04-02 10:44:00,
2013-04-02 06:46:00,70.3,68.8,30.01,NNE,19,2.0,4.0,95,0.00,,FEW,0.00,0.00,VWS V14.01,2013-04-02 10:46:00,
2013-04-02 06:48:00,70.4,68.9,30.02,NNE,22,2.0,4.0,95,0.00,,FEW,0.00,0.00,VWS V14.01,2013-04-02 10:48:00,
2013-04-02 06:49:00,70.4,68.9,30.02,North,11,2.0,4.0,95,0.00,,FEW,0.00,0.00,VWS V14.01,2013-04-02 10:49:00,
2013-04-02 06:51:00,70.4,68.9,30.02,NNE,22,2.0,4.0,95,0.00,,FEW,0.00,0.00,VWS V14.01,2013-04-02 10:51:00,
2013-04-02 06:53:00,70.4,68.9,30.02,NNE,12,1.0,4.0,95,0.00,,FEW,0.00,0.00,VWS V14.01,2013-04-02 10:53:00,
2013-04-02 06:54:00,70.4,68.9,30.02,NNE,20,0.0,4.0,95,0.00,,FEW,0.00,0.00,VWS V14.01,2013-04-02 10:54:00,
2013-04-02 06:56:00,70.4,68.6,30.02,NE,40,3.0,4.0,94,0.00,,FEW,0.00,0.00,VWS V14.01,2013-04-02 10:56:00,
2013-04-02 06:58:00,70.4,68.6,30.02,NNE,30,1.0,4.0,94,0.00,,FEW,0.00,0.00,VWS V14.01,2013-04-02 10:58:00,
2013-04-02 06:59:00,70.3,68.5,30.02,NNE,30,2.0,4.0,94,0.00,,FEW,0.00,0.00,VWS V14.01,2013-04-02 10:59:00,
2013-04-02 07:01:00,70.3,68.5,30.02,NNE,26,1.0,4.0,94,0.00,,FEW,0.00,0.00,VWS V14.01,2013-04-02 11:01:00,
2013-04-02 07:03:00,70.3,68.5,30.03,NNE,17,3.0,4.0,94,0.00,,FEW,0.00,0.00,VWS V14.01,2013-04-02 11:03:00,
2013-04-02 07:04:00,70.3,68.5,30.03,NNE,17,2.0,4.0,94,0.00,,FEW,0.00,0.00,VWS V14.01,2013-04-02 11:04:00,
2013-04-02 07:06:00,70.3,68.5,30.03,NNE,17,0.0,4.0,94,0.00,,FEW,0.00,0.00,VWS V14.01,2013-04-02 11:06:00,
2013-04-02 07:08:00,70.2,68.4,30.03,NNE,17,2.0,4.0,94,0.00,,FEW,0.00,0.00,VWS V14.01,2013-04-02 11:08:00,
2013-04-02 07:09:00,70.3,68.5,30.03,NNE,17,2.0,4.0,94,0.00,,FEW,0.00,0.00,VWS V14.01,2013-04-02 11:09:00,
2013-04-02 07:11:00,70.3,68.5,30.03,North,9,2.0,4.0,94,0.00,,FEW,0.00,0.00,VWS V14.01,2013-04-02 11:11:00,
2013-04-02 07:14:00,70.3,68.5,30.03,NNE,28,2.0,3.0,94,0.00,,FEW,0.00,0.00,VWS V14.01,2013-04-02 11:14:00,
2013-04-02 07:17:00,70.2,68.4,30.03,NNE,27,1.0,3.0,94,0.00,,FEW,0.00,5.00,VWS V14.01,2013-04-02 11:17:00,
2013-04-02 07:19:00,70.3,68.5,30.03,NNE,27,2.0,3.0,94,0.00,,FEW,0.00,5.00,VWS V14.01,2013-04-02 11:19:00,
2013-04-02 07:22:00,70.3,68.5,30.03,NNE,27,2.0,3.0,94,0.00,,FEW,0.00,9.00,VWS V14.01,2013-04-02 11:22:00,
2013-04-02 07:24:00,70.3,68.5,30.03,NNE,27,1.0,2.0,94,0.00,,FEW,0.00,11.00,VWS V14.01,2013-04-02 11:24:00,
2013-04-02 07:27:00,70.3,68.5,30.03,NNE,23,3.0,5.0,94,0.00,,FEW,0.00,12.00,VWS V14.01,2013-04-02 11:27:00,
2013-04-02 07:29:00,70.3,68.5,30.03,NNE,26,1.0,5.0,94,0.00,,FEW,0.00,14.00,VWS V14.01,2013-04-02 11:29:00,
2013-04-02 07:30:00,70.3,68.5,30.03,NNE,26,1.0,5.0,94,0.00,,FEW,0.00,16.00,VWS V14.01,2013-04-02 11:30:00,
2013-04-02 07:32:00,70.4,68.6,30.03,NNE,30,1.0,5.0,94,0.00,,FEW,0.00,18.00,VWS V14.01,2013-04-02 11:32:00,
2013-04-02 07:34:00,70.4,68.6,30.03,NNE,30,1.0,2.0,94,0.00,,FEW,0.00,19.00,VWS V14.01,2013-04-02 11:34:00,
2013-04-02 07:35:00,70.4,68.6,30.03,NNE,30,1.0,2.0,94,0.00,,FEW,0.00,21.00,VWS V14.01,2013-04-02 11:35:00,
2013-04-02 07:37:00,70.4,68.6,30.03,NE,49,2.0,3.0,94,0.00,,FEW,0.00,21.00,VWS V14.01,2013-04-02 11:37:00,
2013-04-02 07:39:00,70.4,68.6,30.03,NE,44,1.0,3.0,94,0.00,,FEW,0.00,23.00,VWS V14.01,2013-04-02 11:39:00,
2013-04-02 07:40:00,70.5,68.7,30.03,NNE,30,2.0,4.0,94,0.00,,FEW,0.00,26.00,VWS V14.01,2013-04-02 11:40:00,
2013-04-02 07:42:00,70.5,68.7,30.03,NE,36,1.0,4.0,94,0.00,,FEW,0.00,30.00,VWS V14.01,2013-04-02 11:42:00,
2013-04-02 07:44:00,70.5,68.7,30.03,NNE,23,3.0,3.0,94,0.00,,FEW,0.00,33.00,VWS V14.01,2013-04-02 11:44:00,
2013-04-02 07:45:00,70.5,68.7,30.03,NNE,23,3.0,4.0,94,0.00,,FEW,0.00,33.00,VWS V14.01,2013-04-02 11:45:00,
2013-04-02 07:47:00,70.6,68.8,30.04,North,5,2.0,4.0,94,0.00,,FEW,0.00,28.00,VWS V14.01,2013-04-02 11:47:00,
2013-04-02 07:49:00,70.6,68.8,30.04,NNE,26,1.0,4.0,94,0.00,,FEW,0.00,32.00,VWS V14.01,2013-04-02 11:49:00,
2013-04-02 07:50:00,70.6,68.8,30.04,NNE,26,2.0,4.0,94,0.00,,FEW,0.00,32.00,VWS V14.01,2013-04-02 11:50:00,
2013-04-02 07:52:00,70.7,68.9,30.04,North,5,1.0,4.0,94,0.00,,FEW,0.00,33.00,VWS V14.01,2013-04-02 11:52:00,
2013-04-02 07:54:00,70.8,69.0,30.04,NNE,29,1.0,4.0,94,0.00,,FEW,0.00,33.00,VWS V14.01,2013-04-02 11:54:00,
2013-04-02 07:55:00,70.8,69.0,30.04,NNE,15,2.0,4.0,94,0.00,,FEW,0.00,35.00,VWS V14.01,2013-04-02 11:55:00,
2013-04-02 07:57:00,70.9,69.1,30.04,NNE,16,1.0,4.0,94,0.00,,FEW,0.00,35.00,VWS V14.01,2013-04-02 11:57:00,
2013-04-02 07:59:00,70.9,69.1,30.04,North,5,1.0,4.0,94,0.00,,FEW,0.00,39.00,VWS V14.01,2013-04-02 11:59:00,
2013-04-02 08:00:00,70.9,69.1,30.04,North,355,2.0,4.0,94,0.00,,FEW,0.00,39.00,VWS V14.01,2013-04-02 12:00:00,
2013-04-02 08:02:00,71.0,69.2,30.05,NNE,22,2.0,2.0,94,0.00,,FEW,0.00,40.00,VWS V14.01,2013-04-02 12:02:00,
2013-04-02 08:05:00,71.1,69.3,30.05,NNE,18,2.0,4.0,94,0.00,,FEW,0.00,40.00,VWS V14.01,2013-04-02 12:05:00,
2013-04-02 08:06:00,71.1,69.3,30.05,NNE,16,1.0,4.0,94,0.00,,FEW,0.00,42.00,VWS V14.01,2013-04-02 12:06:00,
2013-04-02 08:07:00,71.2,69.4,30.05,North,5,4.0,4.0,94,0.00,,FEW,0.00,42.00,VWS V14.01,2013-04-02 12:07:00,
2013-04-02 08:10:00,71.3,69.5,30.05,North,351,1.0,4.0,94,0.00,,FEW,0.00,42.00,VWS V14.01,2013-04-02 12:10:00,
2013-04-02 08:11:00,71.3,69.5,30.05,NNE,23,2.0,4.0,94,0.00,,FEW,0.00,44.00,VWS V14.01,2013-04-02 12:11:00,
2013-04-02 08:13:00,71.4,69.6,30.05,NNE,22,0.0,2.0,94,0.00,,FEW,0.00,46.00,VWS V14.01,2013-04-02 12:13:00,
2013-04-02 08:15:00,71.5,69.7,30.05,NNE,22,1.0,2.0,94,0.00,,FEW,0.00,46.00,VWS V14.01,2013-04-02 12:15:00,
2013-04-02 08:16:00,71.5,69.7,30.06,North,355,1.0,3.0,94,0.00,,FEW,0.00,47.00,VWS V14.01,2013-04-02 12:16:00,
2013-04-02 08:18:00,71.6,69.8,30.06,NNE,17,2.0,3.0,94,0.00,,FEW,0.00,54.00,VWS V14.01,2013-04-02 12:18:00,
2013-04-02 08:20:00,71.6,69.8,30.06,NNE,27,1.0,3.0,94,0.00,,FEW,0.00,60.00,VWS V14.01,2013-04-02 12:20:00,
2013-04-02 08:21:00,71.7,69.9,30.06,NE,36,1.0,3.0,94,0.00,,FEW,0.00,54.00,VWS V14.01,2013-04-02 12:21:00,
2013-04-02 08:23:00,71.8,70.0,30.06,NNE,30,2.0,3.0,94,0.00,,FEW,0.00,58.00,VWS V14.01,2013-04-02 12:23:00,
2013-04-02 08:25:00,71.8,69.7,30.06,NNE,29,4.0,4.0,93,0.00,,FEW,0.00,56.00,VWS V14.01,2013-04-02 12:25:00,
2013-04-02 08:26:00,71.9,69.8,30.06,NNE,24,4.0,4.0,93,0.00,,FEW,0.00,56.00,VWS V14.01,2013-04-02 12:26:00,
2013-04-02 08:28:00,71.9,69.8,30.06,NNE,24,2.0,4.0,93,0.00,,FEW,0.00,54.00,VWS V14.01,2013-04-02 12:28:00,
2013-04-02 08:30:00,72.0,69.9,30.06,NE,38,5.0,5.0,93,0.00,,FEW,0.00,56.00,VWS V14.01,2013-04-02 12:30:00,
2013-04-02 08:32:00,72.0,69.9,30.07,NE,39,1.0,5.0,93,0.00,,FEW,0.00,56.00,VWS V14.01,2013-04-02 12:32:00,
2013-04-02 08:34:00,72.1,70.0,30.07,North,11,5.0,5.0,93,0.00,,FEW,0.00,56.00,VWS V14.01,2013-04-02 12:34:00,
2013-04-02 08:35:00,72.1,70.0,30.07,NNE,33,3.0,5.0,93,0.00,,FEW,0.00,62.00,VWS V14.01,2013-04-02 12:35:00,
2013-04-02 08:38:00,72.2,70.1,30.07,North,5,4.0,5.0,93,0.00,,FEW,0.00,62.00,VWS V14.01,2013-04-02 12:38:00,
2013-04-02 08:39:00,72.3,70.2,30.07,NNE,22,2.0,5.0,93,0.00,,FEW,0.00,65.00,VWS V14.01,2013-04-02 12:39:00,
2013-04-02 08:40:00,72.4,70.3,30.07,North,5,0.0,5.0,93,0.00,,FEW,0.00,74.00,VWS V14.01,2013-04-02 12:40:00,
2013-04-02 08:41:00,72.4,70.3,30.07,North,355,3.0,5.0,93,0.00,,FEW,0.00,74.00,VWS V14.01,2013-04-02 12:41:00,
2013-04-02 08:43:00,72.5,70.4,30.07,NNE,14,3.0,3.0,93,0.00,,FEW,0.00,72.00,VWS V14.01,2013-04-02 12:43:00,
2013-04-02 08:44:00,72.5,70.4,30.07,NNE,13,3.0,3.0,93,0.00,,FEW,0.00,72.00,VWS V14.01,2013-04-02 12:44:00,
2013-04-02 08:45:00,72.6,70.5,30.07,NNE,22,4.0,4.0,93,0.00,,FEW,0.00,74.00,VWS V14.01,2013-04-02 12:45:00,
2013-04-02 08:46:00,72.6,70.5,30.07,NNE,22,3.0,4.0,93,0.00,,FEW,0.00,76.00,VWS V14.01,2013-04-02 12:46:00,
2013-04-02 08:48:00,72.7,70.6,30.08,North,5,2.0,5.0,93,0.00,,FEW,0.00,79.00,VWS V14.01,2013-04-02 12:48:00,
2013-04-02 08:49:00,72.7,70.6,30.08,NE,46,3.0,5.0,93,0.00,,FEW,0.00,153.00,VWS V14.01,2013-04-02 12:49:00,
2013-04-02 08:50:00,72.7,70.6,30.08,NE,49,2.0,5.0,93,0.00,,FEW,0.00,84.00,VWS V14.01,2013-04-02 12:50:00,
2013-04-02 08:51:00,72.8,70.7,30.08,NE,47,2.0,5.0,93,0.00,,FEW,0.00,84.00,VWS V14.01,2013-04-02 12:51:00,
2013-04-02 08:53:00,72.9,70.8,30.08,NNE,32,3.0,4.0,93,0.00,,FEW,0.00,225.00,VWS V14.01,2013-04-02 12:53:00,
2013-04-02 08:54:00,72.9,70.8,30.08,NNE,24,4.0,5.0,93,0.00,,FEW,0.00,223.00,VWS V14.01,2013-04-02 12:54:00,
2013-04-02 08:55:00,73.0,70.5,30.08,NNE,13,6.0,6.0,92,0.00,,FEW,0.00,248.00,VWS V14.01,2013-04-02 12:55:00,
2013-04-02 08:56:00,72.9,70.4,30.08,NE,36,2.0,6.0,92,0.00,,FEW,0.00,278.00,VWS V14.01,2013-04-02 12:56:00,
2013-04-02 08:58:00,72.9,70.4,30.08,NE,36,2.0,6.0,92,0.00,,FEW,0.00,246.00,VWS V14.01,2013-04-02 12:58:00,
2013-04-02 08:59:00,72.9,70.4,30.08,NE,42,4.0,6.0,92,0.00,,FEW,0.00,281.00,VWS V14.01,2013-04-02 12:59:00,
2013-04-02 09:00:00,73.0,70.5,30.08,NE,41,1.0,6.0,92,0.00,,FEW,0.00,288.00,VWS V14.01,2013-04-02 13:00:00,
2013-04-02 09:01:00,73.0,70.5,30.07,NE,38,1.0,6.0,92,0.00,,FEW,0.00,315.00,VWS V14.01,2013-04-02 13:01:00,
2013-04-02 09:03:00,73.1,70.6,30.07,NNE,22,3.0,5.0,92,0.00,,FEW,0.00,325.00,VWS V14.01,2013-04-02 13:03:00,
2013-04-02 09:04:00,73.1,70.6,30.07,NNE,22,2.0,5.0,92,0.00,,FEW,0.00,325.00,VWS V14.01,2013-04-02 13:04:00,
2013-04-02 09:05:00,73.1,70.3,30.07,NNE,20,2.0,5.0,91,0.00,,FEW,0.00,332.00,VWS V14.01,2013-04-02 13:05:00,
2013-04-02 09:07:00,73.2,70.4,30.07,NNE,31,3.0,5.0,91,0.00,,FEW,0.00,336.00,VWS V14.01,2013-04-02 13:07:00,
2013-04-02 09:09:00,73.3,70.5,30.07,NE,45,2.0,5.0,91,0.00,,FEW,0.00,343.00,VWS V14.01,2013-04-02 13:09:00,
2013-04-02 09:10:00,73.5,70.7,30.07,NE,42,2.0,5.0,91,0.00,,FEW,0.00,350.00,VWS V14.01,2013-04-02 13:10:00,
2013-04-02 09:12:00,73.6,70.8,30.07,NE,40,0.0,5.0,91,0.00,,FEW,0.00,357.00,VWS V14.01,2013-04-02 13:12:00,
2013-04-02 09:14:00,73.9,71.1,30.07,NE,42,1.0,2.0,91,0.00,,FEW,0.00,362.00,VWS V14.01,2013-04-02 13:14:00,
2013-04-02 09:15:00,73.9,71.1,30.07,NNE,32,1.0,3.0,91,0.00,,FEW,0.00,366.00,VWS V14.01,2013-04-02 13:15:00,
2013-04-02 09:16:00,74.1,71.0,30.07,NNE,32,0.0,3.0,90,0.00,,FEW,0.00,369.00,VWS V14.01,2013-04-02 13:16:00,
2013-04-02 09:17:00,74.2,71.1,30.07,NE,36,2.0,3.0,90,0.00,,FEW,0.00,376.00,VWS V14.01,2013-04-02 13:17:00,
2013-04-02 09:19:00,74.4,71.3,30.07,North,351,3.0,4.0,90,0.00,,FEW,0.00,381.00,VWS V14.01,2013-04-02 13:19:00,
2013-04-02 09:20:00,74.5,71.1,30.07,NNE,17,1.0,4.0,89,0.00,,FEW,0.00,381.00,VWS V14.01,2013-04-02 13:20:00,
2013-04-02 09:21:00,74.7,70.9,30.07,NNE,17,3.0,4.0,88,0.00,,FEW,0.00,388.00,VWS V14.01,2013-04-02 13:21:00,
2013-04-02 09:22:00,74.8,71.0,30.07,NNE,23,2.0,4.0,88,0.00,,FEW,0.00,392.00,VWS V14.01,2013-04-02 13:22:00,
2013-04-02 09:24:00,74.9,70.8,30.07,NE,41,1.0,3.0,87,0.00,,FEW,0.00,399.00,VWS V14.01,2013-04-02 13:24:00,
2013-04-02 09:25:00,74.9,70.8,30.07,NE,38,2.0,3.0,87,0.00,,FEW,0.00,403.00,VWS V14.01,2013-04-02 13:25:00,
2013-04-02 09:26:00,75.2,71.1,30.07,NNE,17,1.0,3.0,87,0.00,,FEW,0.00,406.00,VWS V14.01,2013-04-02 13:26:00,
2013-04-02 09:28:00,75.4,70.9,30.07,NE,38,3.0,4.0,86,0.00,,FEW,0.00,415.00,VWS V14.01,2013-04-02 13:28:00,
2013-04-02 09:29:00,75.5,71.0,30.07,NE,35,2.0,4.0,86,0.00,,FEW,0.00,418.00,VWS V14.01,2013-04-02 13:29:00,
2013-04-02 09:30:00,75.6,71.1,30.07,NNE,33,2.0,4.0,86,0.00,,FEW,0.00,422.00,VWS V14.01,2013-04-02 13:30:00,
2013-04-02 09:32:00,75.8,71.0,30.07,NNE,27,2.0,3.0,85,0.00,,FEW,0.00,432.00,VWS V14.01,2013-04-02 13:32:00,
2013-04-02 09:33:00,75.8,70.6,30.07,NNE,27,1.0,3.0,84,0.00,,FEW,0.00,432.00,VWS V14.01,2013-04-02 13:33:00,
2013-04-02 09:34:00,75.9,70.7,30.07,NNE,26,2.0,3.0,84,0.00,,FEW,0.00,439.00,VWS V14.01,2013-04-02 13:34:00,
2013-04-02 09:35:00,75.9,70.7,30.07,NE,42,3.0,3.0,84,0.00,,FEW,0.00,439.00,VWS V14.01,2013-04-02 13:35:00,
2013-04-02 09:38:00,76.2,70.7,30.07,NE,44,2.0,3.0,83,0.00,,FEW,0.00,450.00,VWS V14.01,2013-04-02 13:38:00,
2013-04-02 09:39:00,76.3,70.8,30.07,NE,46,3.0,3.0,83,0.00,,FEW,0.00,457.00,VWS V14.01,2013-04-02 13:39:00,
2013-04-02 09:40:00,76.4,70.9,30.07,NE,46,2.0,3.0,83,0.00,,FEW,0.00,461.00,VWS V14.01,2013-04-02 13:40:00,
2013-04-02 09:43:00,76.6,70.7,30.07,NE,37,2.0,2.0,82,0.00,,FEW,0.00,471.00,VWS V14.01,2013-04-02 13:43:00,
2013-04-02 09:44:00,76.7,70.4,30.07,NE,47,3.0,3.0,81,0.00,,FEW,0.00,475.00,VWS V14.01,2013-04-02 13:44:00,
2013-04-02 09:45:00,76.8,70.5,30.07,NE,39,2.0,3.0,81,0.00,,FEW,0.00,478.00,VWS V14.01,2013-04-02 13:45:00,
2013-04-02 09:48:00,76.9,70.6,30.08,ENE,60,1.0,3.0,81,0.00,,FEW,0.00,489.00,VWS V14.01,2013-04-02 13:48:00,
2013-04-02 09:49:00,77.1,70.8,30.08,NE,55,2.0,3.0,81,0.00,,FEW,0.00,496.00,VWS V14.01,2013-04-02 13:49:00,
2013-04-02 09:50:00,77.1,70.8,30.08,NE,55,2.0,3.0,81,0.00,,FEW,0.00,496.00,VWS V14.01,2013-04-02 13:50:00,
2013-04-02 09:53:00,77.2,70.6,30.08,NE,42,3.0,3.0,80,0.00,,FEW,0.00,506.00,VWS V14.01,2013-04-02 13:53:00,
2013-04-02 09:54:00,77.2,70.2,30.08,North,355,3.0,4.0,79,0.00,,FEW,0.00,508.00,VWS V14.01,2013-04-02 13:54:00,
2013-04-02 09:55:00,77.2,70.2,30.08,North,5,2.0,4.0,79,0.00,,FEW,0.00,513.00,VWS V14.01,2013-04-02 13:55:00,
2013-04-02 09:58:00,77.2,69.8,30.08,North,355,3.0,4.0,78,0.00,,FEW,0.00,526.00,VWS V14.01,2013-04-02 13:58:00,
2013-04-02 09:59:00,77.2,69.4,30.08,North,355,2.0,4.0,77,0.00,,FEW,0.00,526.00,VWS V14.01,2013-04-02 13:59:00,
2013-04-02 10:00:00,77.3,69.9,30.08,NNE,29,1.0,4.0,78,0.00,,FEW,0.00,529.00,VWS V14.01,2013-04-02 14:00:00,
2013-04-02 10:03:00,77.5,70.1,30.08,North,5,3.0,3.0,78,0.00,,FEW,0.00,540.00,VWS V14.01,2013-04-02 14:03:00,
2013-04-02 10:04:00,77.5,70.1,30.08,NNE,24,2.0,3.0,78,0.00,,FEW,0.00,543.00,VWS V14.01,2013-04-02 14:04:00,
2013-04-02 10:05:00,77.5,69.7,30.08,North,355,2.0,3.0,77,0.00,,FEW,0.00,548.00,VWS V14.01,2013-04-02 14:05:00,
2013-04-02 10:08:00,77.8,70.4,30.08,NE,44,3.0,3.0,78,0.00,,FEW,0.00,557.00,VWS V14.01,2013-04-02 14:08:00,
2013-04-02 10:09:00,77.8,70.4,30.08,North,11,3.0,4.0,78,0.00,,FEW,0.00,561.00,VWS V14.01,2013-04-02 14:09:00,
2013-04-02 10:10:00,77.8,70.0,30.08,NNE,30,1.0,4.0,77,0.00,,FEW,0.00,564.00,VWS V14.01,2013-04-02 14:10:00,
2013-04-02 10:14:00,77.9,70.1,30.08,NNE,17,4.0,5.0,77,0.00,,FEW,0.00,577.00,VWS V14.01,2013-04-02 14:14:00,
2013-04-02 10:15:00,77.8,69.6,30.08,NNW,343,5.0,5.0,76,0.00,,FEW,0.00,584.00,VWS V14.01,2013-04-02 14:15:00,
2013-04-02 10:19:00,77.9,69.7,30.08,North,360,5.0,5.0,76,0.00,,FEW,0.00,592.00,VWS V14.01,2013-04-02 14:19:00,
2013-04-02 10:20:00,77.8,69.6,30.08,NE,35,6.0,6.0,76,0.00,,FEW,0.00,598.00,VWS V14.01,2013-04-02 14:20:00,
2013-04-02 10:24:00,77.7,69.9,30.08,NE,53,5.0,6.0,77,0.00,,FEW,0.00,610.00,VWS V14.01,2013-04-02 14:24:00,
2013-04-02 10:25:00,77.6,70.2,30.08,NE,38,5.0,6.0,78,0.00,,FEW,0.00,612.00,VWS V14.01,2013-04-02 14:25:00,
2013-04-02 10:26:00,77.6,70.2,30.08,NNE,25,6.0,6.0,78,0.00,,FEW,0.00,612.00,VWS V14.01,2013-04-02 14:26:00,
2013-04-02 10:29:00,77.5,70.1,30.08,NE,46,4.0,6.0,78,0.00,,FEW,0.00,626.00,VWS V14.01,2013-04-02 14:29:00,
2013-04-02 10:30:00,77.5,70.5,30.08,NNE,23,3.0,6.0,79,0.00,,FEW,0.00,629.00,VWS V14.01,2013-04-02 14:30:00,
2013-04-02 10:31:00,77.5,70.5,30.08,NNE,31,4.0,6.0,79,0.00,,FEW,0.00,631.00,VWS V14.01,2013-04-02 14:31:00,
2013-04-02 10:34:00,77.7,70.7,30.08,NNE,14,4.0,6.0,79,0.00,,FEW,0.00,640.00,VWS V14.01,2013-04-02 14:34:00,
2013-04-02 10:35:00,77.7,70.7,30.08,NNE,27,5.0,6.0,79,0.00,,FEW,0.00,642.00,VWS V14.01,2013-04-02 14:35:00,
2013-04-02 10:37:00,77.6,70.6,30.08,NNE,14,5.0,6.0,79,0.00,,FEW,0.00,650.00,VWS V14.01,2013-04-02 14:37:00,
2013-04-02 10:39:00,77.5,70.5,30.08,NNE,15,4.0,6.0,79,0.00,,FEW,0.00,657.00,VWS V14.01,2013-04-02 14:39:00,
2013-04-02 10:40:00,77.6,70.9,30.08,NNE,18,4.0,7.0,80,0.00,,FEW,0.00,663.00,VWS V14.01,2013-04-02 14:40:00,
2013-04-02 10:42:00,77.6,70.9,30.08,NNE,26,5.0,7.0,80,0.00,,FEW,0.00,663.00,VWS V14.01,2013-04-02 14:42:00,
2013-04-02 10:44:00,77.5,70.8,30.08,North,9,4.0,6.0,80,0.00,,FEW,0.00,671.00,VWS V14.01,2013-04-02 14:44:00,
2013-04-02 10:45:00,77.5,70.8,30.08,North,355,5.0,6.0,80,0.00,,FEW,0.00,671.00,VWS V14.01,2013-04-02 14:45:00,
2013-04-02 10:47:00,77.5,70.8,30.08,NNE,27,2.0,6.0,80,0.00,,FEW,0.00,680.00,VWS V14.01,2013-04-02 14:47:00,
2013-04-02 10:49:00,77.5,70.8,30.08,NE,49,4.0,7.0,80,0.00,,FEW,0.00,686.00,VWS V14.01,2013-04-02 14:49:00,
2013-04-02 10:50:00,77.5,70.8,30.08,NNE,30,3.0,7.0,80,0.00,,FEW,0.00,687.00,VWS V14.01,2013-04-02 14:50:00,
2013-04-02 10:51:00,77.3,71.0,30.08,NE,34,3.0,7.0,81,0.00,,FEW,0.00,691.00,VWS V14.01,2013-04-02 14:51:00,
2013-04-02 10:52:00,77.3,71.0,30.08,NE,42,3.0,7.0,81,0.00,,FEW,0.00,693.00,VWS V14.01,2013-04-02 14:52:00,
2013-04-02 10:54:00,77.3,71.0,30.08,NNE,13,4.0,8.0,81,0.00,,FEW,0.00,700.00,VWS V14.01,2013-04-02 14:54:00,
2013-04-02 10:55:00,77.3,71.0,30.08,NNE,29,3.0,8.0,81,0.00,,FEW,0.00,701.00,VWS V14.01,2013-04-02 14:55:00,
2013-04-02 10:56:00,77.2,70.9,30.08,NE,35,3.0,8.0,81,0.00,,FEW,0.00,703.00,VWS V14.01,2013-04-02 14:56:00,
2013-04-02 10:57:00,77.1,70.8,30.08,NE,42,4.0,8.0,81,0.00,,FEW,0.00,707.00,VWS V14.01,2013-04-02 14:57:00,
2013-04-02 11:00:00,76.9,71.0,30.08,North,355,4.0,8.0,82,0.00,,FEW,0.00,714.00,VWS V14.01,2013-04-02 15:00:00,
2013-04-02 11:01:00,77.0,71.1,30.08,NNW,345,5.0,8.0,82,0.00,,FEW,0.00,717.00,VWS V14.01,2013-04-02 15:01:00,
2013-04-02 11:02:00,76.9,71.0,30.08,NNE,18,6.0,6.0,82,0.00,,FEW,0.00,722.00,VWS V14.01,2013-04-02 15:02:00,
2013-04-02 11:05:00,76.7,70.8,30.08,North,355,3.0,7.0,82,0.00,,FEW,0.00,729.00,VWS V14.01,2013-04-02 15:05:00,
2013-04-02 11:07:00,77.0,71.4,30.08,North,5,5.0,7.0,83,0.00,,FEW,0.00,733.00,VWS V14.01,2013-04-02 15:07:00,
2013-04-02 11:10:00,76.9,71.0,30.08,NNE,17,3.0,8.0,82,0.00,,FEW,0.00,744.00,VWS V14.01,2013-04-02 15:10:00,
2013-04-02 11:12:00,76.9,71.0,30.08,NNW,331,8.0,8.0,82,0.00,,FEW,0.00,744.00,VWS V14.01,2013-04-02 15:12:00,
2013-04-02 11:13:00,76.9,71.0,30.08,NE,38,3.0,8.0,82,0.00,,FEW,0.00,747.00,VWS V14.01,2013-04-02 15:13:00,
2013-04-02 11:15:00,76.9,71.0,30.08,NNE,13,3.0,8.0,82,0.00,,FEW,0.00,756.00,VWS V14.01,2013-04-02 15:15:00,
2013-04-02 11:17:00,76.9,70.6,30.08,NNW,334,4.0,8.0,81,0.00,,FEW,0.00,761.00,VWS V14.01,2013-04-02 15:17:00,
2013-04-02 11:18:00,77.0,71.1,30.08,NNE,27,6.0,8.0,82,0.00,,FEW,0.00,766.00,VWS V14.01,2013-04-02 15:18:00,
2013-04-02 11:20:00,77.1,71.2,30.08,NNE,28,4.0,8.0,82,0.00,,FEW,0.00,768.00,VWS V14.01,2013-04-02 15:20:00,
2013-04-02 11:22:00,77.1,71.2,30.08,North,355,5.0,8.0,82,0.00,,FEW,0.00,772.00,VWS V14.01,2013-04-02 15:22:00,
2013-04-02 11:23:00,77.1,71.2,30.08,NNE,15,6.0,7.0,82,0.00,,FEW,0.00,775.00,VWS V14.01,2013-04-02 15:23:00,
2013-04-02 11:25:00,76.9,71.0,30.08,North,5,3.0,8.0,82,0.00,,FEW,0.00,782.00,VWS V14.01,2013-04-02 15:25:00,
2013-04-02 11:27:00,77.0,71.1,30.08,North,360,5.0,8.0,82,0.00,,FEW,0.00,784.00,VWS V14.01,2013-04-02 15:27:00,
2013-04-02 11:28:00,76.9,71.0,30.08,NE,44,5.0,8.0,82,0.00,,FEW,0.00,784.00,VWS V14.01,2013-04-02 15:28:00,
2013-04-02 11:30:00,77.3,71.4,30.08,NNE,32,4.0,8.0,82,0.00,,FEW,0.00,791.00,VWS V14.01,2013-04-02 15:30:00,
2013-04-02 11:31:00,77.3,71.4,30.08,NNE,15,4.0,8.0,82,0.00,,FEW,0.00,791.00,VWS V14.01,2013-04-02 15:31:00,
2013-04-02 11:33:00,77.5,71.2,30.08,North,360,5.0,7.0,81,0.00,,FEW,0.00,796.00,VWS V14.01,2013-04-02 15:33:00,
2013-04-02 11:36:00,78.0,71.7,30.08,North,351,4.0,8.0,81,0.00,,FEW,0.00,802.00,VWS V14.01,2013-04-02 15:36:00,
2013-04-02 11:38:00,78.1,71.4,30.08,NNE,23,3.0,8.0,80,0.00,,FEW,0.00,810.00,VWS V14.01,2013-04-02 15:38:00,
2013-04-02 11:41:00,78.4,71.3,30.08,ENE,58,7.0,8.0,79,0.00,,FEW,0.00,816.00,VWS V14.01,2013-04-02 15:41:00,
2013-04-02 11:43:00,78.4,71.3,30.08,North,5,3.0,5.0,79,0.00,,FEW,0.00,819.00,VWS V14.01,2013-04-02 15:43:00,
2013-04-02 11:46:00,78.6,71.2,30.08,NNE,13,4.0,8.0,78,0.00,,FEW,0.00,828.00,VWS V14.01,2013-04-02 15:46:00,
2013-04-02 11:47:00,78.6,71.2,30.08,NNE,13,4.0,8.0,78,0.00,,FEW,0.00,828.00,VWS V14.01,2013-04-02 15:47:00,
2013-04-02 11:48:00,78.6,71.2,30.08,NNW,341,5.0,8.0,78,0.00,,FEW,0.00,833.00,VWS V14.01,2013-04-02 15:48:00,
2013-04-02 11:51:00,79.0,71.6,30.08,NNE,18,5.0,8.0,78,0.00,,FEW,0.00,837.00,VWS V14.01,2013-04-02 15:51:00,
2013-04-02 11:52:00,79.0,71.6,30.08,NNE,18,5.0,8.0,78,0.00,,FEW,0.00,837.00,VWS V14.01,2013-04-02 15:52:00,
2013-04-02 11:53:00,79.0,71.2,30.08,NNE,23,2.0,6.0,77,0.00,,FEW,0.00,842.00,VWS V14.01,2013-04-02 15:53:00,
2013-04-02 11:57:00,79.1,71.3,30.08,NE,37,4.0,8.0,77,0.00,,FEW,0.00,846.00,VWS V14.01,2013-04-02 15:57:00,
2013-04-02 11:58:00,79.2,71.0,30.08,NE,34,1.0,8.0,76,0.00,,FEW,0.00,851.00,VWS V14.01,2013-04-02 15:58:00,
2013-04-02 12:02:00,79.5,71.3,30.08,NE,38,6.0,8.0,76,0.00,,FEW,0.00,860.00,VWS V14.01,2013-04-02 16:02:00,
2013-04-02 12:04:00,79.6,71.0,30.08,North,5,2.0,5.0,75,0.00,,FEW,0.00,863.00,VWS V14.01,2013-04-02 16:04:00,
2013-04-02 12:07:00,79.8,71.2,30.08,NNE,21,8.0,8.0,75,0.00,,FEW,0.00,867.00,VWS V14.01,2013-04-02 16:07:00,
2013-04-02 12:09:00,79.8,71.2,30.08,North,349,6.0,8.0,75,0.00,,FEW,0.00,870.00,VWS V14.01,2013-04-02 16:09:00,
2013-04-02 12:12:00,79.3,70.7,30.08,North,360,3.0,8.0,75,0.00,,FEW,0.00,872.00,VWS V14.01,2013-04-02 16:12:00,
2013-04-02 12:14:00,79.0,70.4,30.08,NNW,348,6.0,8.0,75,0.00,,FEW,0.00,877.00,VWS V14.01,2013-04-02 16:14:00,
2013-04-02 12:17:00,78.9,70.7,30.08,NNE,22,6.0,8.0,76,0.00,,FEW,0.00,886.00,VWS V14.01,2013-04-02 16:17:00,
2013-04-02 12:19:00,79.0,70.4,30.08,NNE,16,5.0,8.0,75,0.00,,FEW,0.00,886.00,VWS V14.01,2013-04-02 16:19:00,
2013-04-02 12:23:00,79.5,71.3,30.08,NNE,32,6.0,6.0,76,0.00,,FEW,0.00,891.00,VWS V14.01,2013-04-02 16:23:00,
2013-04-02 12:24:00,79.8,70.8,30.08,NNE,32,5.0,6.0,74,0.00,,FEW,0.00,893.00,VWS V14.01,2013-04-02 16:24:00,
2013-04-02 12:28:00,80.2,71.2,30.08,NE,45,1.0,6.0,74,0.00,,FEW,0.00,898.00,VWS V14.01,2013-04-02 16:28:00,
2013-04-02 12:29:00,80.1,71.1,30.08,North,5,3.0,6.0,74,0.00,,FEW,0.00,900.00,VWS V14.01,2013-04-02 16:29:00,
2013-04-02 12:33:00,80.3,70.9,30.08,NE,38,3.0,6.0,73,0.00,,FEW,0.00,905.00,VWS V14.01,2013-04-02 16:33:00,
2013-04-02 12:36:00,80.3,70.9,30.08,NE,41,4.0,7.0,73,0.00,,FEW,0.00,907.00,VWS V14.01,2013-04-02 16:36:00,
2013-04-02 12:38:00,80.2,70.4,30.08,North,5,5.0,7.0,72,0.00,,FEW,0.00,912.00,VWS V14.01,2013-04-02 16:38:00,
2013-04-02 12:41:00,80.4,71.0,30.08,NE,36,3.0,7.0,73,0.00,,FEW,0.00,914.00,VWS V14.01,2013-04-02 16:41:00,
2013-04-02 12:43:00,80.3,70.9,30.08,NNE,24,4.0,4.0,73,0.00,,FEW,0.00,914.00,VWS V14.01,2013-04-02 16:43:00,
2013-04-02 12:46:00,80.5,71.1,30.08,NE,40,3.0,5.0,73,0.00,,FEW,0.00,918.00,VWS V14.01,2013-04-02 16:46:00,
2013-04-02 12:48:00,80.7,71.2,30.08,NE,51,2.0,5.0,73,0.00,,FEW,0.00,923.00,VWS V14.01,2013-04-02 16:48:00,
2013-04-02 12:52:00,80.3,70.1,30.08,NE,45,6.0,6.0,71,0.00,,FEW,0.00,925.00,VWS V14.01,2013-04-02 16:52:00,
2013-04-02 12:53:00,80.3,70.1,30.08,ENE,63,4.0,5.0,71,0.00,,FEW,0.00,926.00,VWS V14.01,2013-04-02 16:53:00,
2013-04-02 12:57:00,80.3,70.9,30.08,NE,46,3.0,6.0,73,0.00,,FEW,0.00,930.00,VWS V14.01,2013-04-02 16:57:00,
2013-04-02 12:58:00,80.3,70.9,30.08,NE,38,2.0,6.0,73,0.00,,FEW,0.00,930.00,VWS V14.01,2013-04-02 16:58:00,
2013-04-02 12:59:00,80.3,70.9,30.08,NE,38,2.0,6.0,73,0.00,,FEW,0.00,930.00,VWS V14.01,2013-04-02 16:59:00,
2013-04-02 13:02:00,80.3,70.5,30.07,NE,47,3.0,6.0,72,0.00,,FEW,0.00,930.00,VWS V14.01,2013-04-02 17:02:00,
2013-04-02 13:04:00,80.2,70.8,30.07,NE,46,3.0,4.0,73,0.00,,FEW,0.00,928.00,VWS V14.01,2013-04-02 17:04:00,
2013-04-02 13:07:00,80.2,69.5,30.07,North,351,5.0,5.0,70,0.00,,FEW,0.00,935.00,VWS V14.01,2013-04-02 17:07:00,
2013-04-02 13:09:00,80.1,69.4,30.07,NNE,26,2.0,6.0,70,0.00,,FEW,0.00,933.00,VWS V14.01,2013-04-02 17:09:00,
2013-04-02 13:12:00,80.8,69.7,30.07,NNW,344,4.0,6.0,69,0.00,,FEW,0.00,939.00,VWS V14.01,2013-04-02 17:12:00,
2013-04-02 13:14:00,80.9,69.4,30.07,NNE,20,7.0,7.0,68,0.00,,FEW,0.00,937.00,VWS V14.01,2013-04-02 17:14:00,
2013-04-02 13:17:00,80.3,69.2,30.07,North,5,3.0,7.0,69,0.00,,FEW,0.00,939.00,VWS V14.01,2013-04-02 17:17:00,
2013-04-02 13:19:00,80.2,68.7,30.07,NNE,28,1.0,7.0,68,0.00,,FEW,0.00,939.00,VWS V14.01,2013-04-02 17:19:00,
2013-04-02 13:22:00,80.2,68.7,30.07,North,360,5.0,5.0,68,0.00,,FEW,0.00,939.00,VWS V14.01,2013-04-02 17:22:00,
2013-04-02 13:24:00,80.2,68.7,30.07,NE,45,3.0,5.0,68,0.00,,FEW,0.00,940.00,VWS V14.01,2013-04-02 17:24:00,
2013-04-02 13:28:00,81.2,69.2,30.07,NNE,26,1.0,6.0,67,0.00,,FEW,0.00,940.00,VWS V14.01,2013-04-02 17:28:00,
2013-04-02 13:29:00,81.2,68.8,30.07,NNE,28,2.0,6.0,66,0.00,,FEW,0.00,940.00,VWS V14.01,2013-04-02 17:29:00,
2013-04-02 13:30:00,81.2,68.8,30.07,NNW,346,3.0,6.0,66,0.00,,FEW,0.00,939.00,VWS V14.01,2013-04-02 17:30:00,
2013-04-02 13:33:00,81.6,68.7,30.07,NE,39,4.0,7.0,65,0.00,,FEW,0.00,940.00,VWS V14.01,2013-04-02 17:33:00,
2013-04-02 13:34:00,81.4,69.0,30.07,NNW,327,4.0,7.0,66,0.00,,FEW,0.00,940.00,VWS V14.01,2013-04-02 17:34:00,
2013-04-02 13:35:00,81.3,68.4,30.07,NNE,17,4.0,7.0,65,0.00,,FEW,0.00,942.00,VWS V14.01,2013-04-02 17:35:00,
2013-04-02 13:38:00,81.1,68.2,30.07,NE,36,5.0,8.0,65,0.00,,FEW,0.00,940.00,VWS V14.01,2013-04-02 17:38:00,
2013-04-02 13:39:00,81.1,68.7,30.07,North,351,4.0,8.0,66,0.00,,FEW,0.00,942.00,VWS V14.01,2013-04-02 17:39:00,
2013-04-02 13:40:00,81.0,68.6,30.07,North,5,3.0,8.0,66,0.00,,FEW,0.00,940.00,VWS V14.01,2013-04-02 17:40:00,
2013-04-02 13:43:00,80.8,68.4,30.07,North,349,6.0,7.0,66,0.00,,FEW,0.00,940.00,VWS V14.01,2013-04-02 17:43:00,
2013-04-02 13:44:00,80.5,67.7,30.07,NNE,27,5.0,7.0,65,0.00,,FEW,0.00,940.00,VWS V14.01,2013-04-02 17:44:00,
2013-04-02 13:45:00,80.3,67.5,30.07,NNE,12,4.0,7.0,65,0.00,,FEW,0.00,939.00,VWS V14.01,2013-04-02 17:45:00,
2013-04-02 13:48:00,80.4,65.7,30.06,NNE,32,3.0,7.0,61,0.00,,FEW,0.00,939.00,VWS V14.01,2013-04-02 17:48:00,
2013-04-02 13:49:00,80.5,66.8,30.06,NNE,26,3.0,7.0,63,0.00,,FEW,0.00,939.00,VWS V14.01,2013-04-02 17:49:00,
2013-04-02 13:50:00,80.7,67.8,30.06,NNE,23,5.0,7.0,65,0.00,,FEW,0.00,937.00,VWS V14.01,2013-04-02 17:50:00,
2013-04-02 13:54:00,81.0,67.7,30.06,NNE,29,2.0,6.0,64,0.00,,FEW,0.00,937.00,VWS V14.01,2013-04-02 17:54:00,
2013-04-02 13:55:00,81.2,66.9,30.06,NE,35,3.0,6.0,62,0.00,,FEW,0.00,935.00,VWS V14.01,2013-04-02 17:55:00,
2013-04-02 13:59:00,81.3,68.0,30.06,North,11,5.0,6.0,64,0.00,,FEW,0.00,933.00,VWS V14.01,2013-04-02 17:59:00,
2013-04-02 14:00:00,81.1,67.8,30.06,NNE,32,3.0,6.0,64,0.00,,FEW,0.00,933.00,VWS V14.01,2013-04-02 18:00:00,
2013-04-02 14:05:00,81.6,66.4,30.05,NE,40,3.0,4.0,60,0.00,,FEW,0.00,932.00,VWS V14.01,2013-04-02 18:05:00,
2013-04-02 14:06:00,81.6,66.4,30.05,NE,42,4.0,5.0,60,0.00,,FEW,0.00,930.00,VWS V14.01,2013-04-02 18:06:00,
2013-04-02 14:10:00,81.8,66.6,30.05,North,360,4.0,5.0,60,0.00,,FEW,0.00,926.00,VWS V14.01,2013-04-02 18:10:00,
2013-04-02 14:11:00,81.6,66.9,30.05,North,360,3.0,6.0,61,0.00,,FEW,0.00,928.00,VWS V14.01,2013-04-02 18:11:00,
2013-04-02 14:15:00,82.4,67.6,30.05,NNW,343,3.0,6.0,61,0.00,,FEW,0.00,925.00,VWS V14.01,2013-04-02 18:15:00,
2013-04-02 14:16:00,82.1,67.8,30.05,NE,37,3.0,6.0,62,0.00,,FEW,0.00,921.00,VWS V14.01,2013-04-02 18:16:00,
2013-04-02 14:20:00,81.5,65.8,30.05,NE,42,3.0,6.0,59,0.00,,FEW,0.00,919.00,VWS V14.01,2013-04-02 18:20:00,
2013-04-02 14:21:00,81.5,65.3,30.05,NE,45,3.0,6.0,58,0.00,,FEW,0.00,918.00,VWS V14.01,2013-04-02 18:21:00,
2013-04-02 14:25:00,81.2,66.0,30.05,North,355,5.0,7.0,60,0.00,,FEW,0.00,911.00,VWS V14.01,2013-04-02 18:25:00,
2013-04-02 14:26:00,81.1,65.9,30.05,North,351,4.0,7.0,60,0.00,,FEW,0.00,911.00,VWS V14.01,2013-04-02 18:26:00,
2013-04-02 14:30:00,80.7,66.0,30.05,North,10,6.0,7.0,61,0.00,,FEW,0.00,905.00,VWS V14.01,2013-04-02 18:30:00,
2013-04-02 14:31:00,80.7,67.4,30.05,NNW,346,5.0,7.0,64,0.00,,FEW,0.00,905.00,VWS V14.01,2013-04-02 18:31:00,
2013-04-02 14:35:00,80.8,67.9,30.04,North,10,6.0,6.0,65,0.00,,FEW,0.00,898.00,VWS V14.01,2013-04-02 18:35:00,
2013-04-02 14:36:00,80.7,66.0,30.04,NNE,32,3.0,6.0,61,0.00,,FEW,0.00,898.00,VWS V14.01,2013-04-02 18:36:00,
2013-04-02 14:40:00,80.9,65.7,30.04,NNE,24,1.0,7.0,60,0.00,,FEW,0.00,895.00,VWS V14.01,2013-04-02 18:40:00,
2013-04-02 14:41:00,81.1,66.9,30.04,North,5,3.0,7.0,62,0.00,,FEW,0.00,893.00,VWS V14.01,2013-04-02 18:41:00,
2013-04-02 14:42:00,81.1,66.9,30.04,NNW,333,5.0,7.0,62,0.00,,FEW,0.00,893.00,VWS V14.01,2013-04-02 18:42:00,
2013-04-02 14:45:00,80.9,66.2,30.04,NNW,342,6.0,6.0,61,0.00,,FEW,0.00,888.00,VWS V14.01,2013-04-02 18:45:00,
2013-04-02 14:47:00,80.8,67.5,30.03,NE,38,3.0,6.0,64,0.00,,FEW,0.00,884.00,VWS V14.01,2013-04-02 18:47:00,
2013-04-02 14:51:00,80.9,66.2,30.03,North,351,7.0,7.0,61,0.00,,FEW,0.00,879.00,VWS V14.01,2013-04-02 18:51:00,
2013-04-02 14:52:00,80.9,66.7,30.03,North,360,5.0,7.0,62,0.00,,FEW,0.00,877.00,VWS V14.01,2013-04-02 18:52:00,
2013-04-02 14:56:00,80.4,69.3,30.03,West,277,3.0,7.0,69,0.00,,FEW,0.00,872.00,VWS V14.01,2013-04-02 18:56:00,
2013-04-02 14:57:00,80.3,69.6,30.03,North,360,5.0,7.0,70,0.00,,FEW,0.00,867.00,VWS V14.01,2013-04-02 18:57:00,
2013-04-02 15:01:00,80.9,69.4,30.03,WNW,298,5.0,7.0,68,0.00,,FEW,0.00,861.00,VWS V14.01,2013-04-02 19:01:00,
2013-04-02 15:02:00,80.8,68.8,30.03,WNW,300,2.0,7.0,67,0.00,,FEW,0.00,860.00,VWS V14.01,2013-04-02 19:02:00,
2013-04-02 15:06:00,80.6,68.6,30.03,NW,313,5.0,6.0,67,0.00,,FEW,0.00,854.00,VWS V14.01,2013-04-02 19:06:00,
2013-04-02 15:07:00,80.4,68.4,30.03,WNW,294,6.0,6.0,67,0.00,,FEW,0.00,851.00,VWS V14.01,2013-04-02 19:07:00,
2013-04-02 15:12:00,80.5,69.8,30.03,NW,326,2.0,6.0,70,0.00,,FEW,0.00,842.00,VWS V14.01,2013-04-02 19:12:00,
2013-04-02 15:17:00,80.4,68.4,30.02,NNW,340,4.0,6.0,67,0.00,,FEW,0.00,828.00,VWS V14.01,2013-04-02 19:17:00,
2013-04-02 15:18:00,80.4,68.4,30.02,North,355,4.0,6.0,67,0.00,,FEW,0.00,828.00,VWS V14.01,2013-04-02 19:18:00,
2013-04-02 15:22:00,81.3,69.7,30.02,NW,318,5.0,6.0,68,0.00,,FEW,0.00,817.00,VWS V14.01,2013-04-02 19:22:00,
2013-04-02 15:23:00,81.3,69.7,30.02,WNW,292,3.0,5.0,68,0.00,,FEW,0.00,817.00,VWS V14.01,2013-04-02 19:23:00,
2013-04-02 15:27:00,80.8,69.3,30.02,NNW,333,9.0,9.0,68,0.00,,FEW,0.00,810.00,VWS V14.01,2013-04-02 19:27:00,
2013-04-02 15:28:00,80.7,69.6,30.02,NW,324,3.0,9.0,69,0.00,,FEW,0.00,807.00,VWS V14.01,2013-04-02 19:28:00,
2013-04-02 15:32:00,80.2,69.5,30.02,NNW,348,6.0,6.0,70,0.00,,FEW,0.00,798.00,VWS V14.01,2013-04-02 19:32:00,
2013-04-02 15:33:00,80.0,69.3,30.02,NNE,29,5.0,6.0,70,0.00,,FEW,0.00,796.00,VWS V14.01,2013-04-02 19:33:00,
2013-04-02 15:37:00,79.8,69.6,30.02,NW,316,2.0,7.0,71,0.00,,FEW,0.00,786.00,VWS V14.01,2013-04-02 19:37:00,
2013-04-02 15:38:00,80.0,69.8,30.02,NNW,336,3.0,7.0,71,0.00,,FEW,0.00,780.00,VWS V14.01,2013-04-02 19:38:00,
2013-04-02 15:42:00,79.6,69.0,30.02,NW,306,4.0,4.0,70,0.00,,FEW,0.00,772.00,VWS V14.01,2013-04-02 19:42:00,
2013-04-02 15:44:00,79.4,68.8,30.02,NW,323,4.0,4.0,70,0.00,,FEW,0.00,772.00,VWS V14.01,2013-04-02 19:44:00,
2013-04-02 15:47:00,79.1,68.5,30.02,NNW,346,2.0,6.0,70,0.00,,FEW,0.00,761.00,VWS V14.01,2013-04-02 19:47:00,
2013-04-02 15:49:00,79.3,69.5,30.02,WNW,299,5.0,6.0,72,0.00,,FEW,0.00,758.00,VWS V14.01,2013-04-02 19:49:00,
2013-04-02 15:50:00,79.4,69.2,30.02,WNW,294,5.0,6.0,71,0.00,,FEW,0.00,758.00,VWS V14.01,2013-04-02 19:50:00,
2013-04-02 15:53:00,79.2,69.0,30.02,NNW,329,3.0,3.0,71,0.00,,FEW,0.00,744.00,VWS V14.01,2013-04-02 19:53:00,
2013-04-02 15:55:00,79.2,69.0,30.02,NNW,338,5.0,5.0,71,0.00,,FEW,0.00,738.00,VWS V14.01,2013-04-02 19:55:00,
2013-04-02 15:58:00,79.3,69.1,30.02,NW,324,4.0,5.0,71,0.00,,FEW,0.00,731.00,VWS V14.01,2013-04-02 19:58:00,
2013-04-02 16:00:00,79.3,69.5,30.02,NNW,332,5.0,6.0,72,0.00,,FEW,0.00,726.00,VWS V14.01,2013-04-02 20:00:00,
2013-04-02 16:03:00,79.5,69.7,30.02,WNW,284,5.0,5.0,72,0.00,,FEW,0.00,714.00,VWS V14.01,2013-04-02 20:03:00,
2013-04-02 16:05:00,79.6,69.4,30.02,NNW,345,4.0,5.0,71,0.00,,FEW,0.00,714.00,VWS V14.01,2013-04-02 20:05:00,
2013-04-02 16:08:00,80.0,69.3,30.02,NNW,343,5.0,6.0,70,0.00,,FEW,0.00,705.00,VWS V14.01,2013-04-02 20:08:00,
2013-04-02 16:10:00,80.0,69.3,30.02,NW,308,4.0,7.0,70,0.00,,FEW,0.00,696.00,VWS V14.01,2013-04-02 20:10:00,
2013-04-02 16:13:00,80.0,69.3,30.02,North,350,3.0,5.0,70,0.00,,FEW,0.00,687.00,VWS V14.01,2013-04-02 20:13:00,
2013-04-02 16:15:00,80.0,69.3,30.02,NW,316,4.0,5.0,70,0.00,,FEW,0.00,682.00,VWS V14.01,2013-04-02 20:15:00,
2013-04-02 16:18:00,79.6,69.0,30.01,North,355,3.0,6.0,70,0.00,,FEW,0.00,670.00,VWS V14.01,2013-04-02 20:18:00,
2013-04-02 16:20:00,79.6,69.4,30.01,North,351,4.0,6.0,71,0.00,,FEW,0.00,666.00,VWS V14.01,2013-04-02 20:20:00,
2013-04-02 16:21:00,79.6,69.4,30.01,NE,36,3.0,6.0,71,0.00,,FEW,0.00,666.00,VWS V14.01,2013-04-02 20:21:00,
2013-04-02 16:24:00,79.9,69.2,30.01,North,350,3.0,5.0,70,0.00,,FEW,0.00,657.00,VWS V14.01,2013-04-02 20:24:00,
2013-04-02 16:25:00,80.0,69.3,30.01,NNW,329,2.0,5.0,70,0.00,,FEW,0.00,650.00,VWS V14.01,2013-04-02 20:25:00,
2013-04-02 16:26:00,80.1,69.4,30.01,NW,304,2.0,5.0,70,0.00,,FEW,0.00,649.00,VWS V14.01,2013-04-02 20:26:00,
2013-04-02 16:29:00,80.6,69.5,30.01,NW,313,1.0,6.0,69,0.00,,FEW,0.00,643.00,VWS V14.01,2013-04-02 20:29:00,
2013-04-02 16:30:00,80.9,69.8,30.01,North,9,4.0,6.0,69,0.00,,FEW,0.00,638.00,VWS V14.01,2013-04-02 20:30:00,
2013-04-02 16:31:00,80.9,69.4,30.00,North,5,1.0,6.0,68,0.00,,FEW,0.00,635.00,VWS V14.01,2013-04-02 20:31:00,
2013-04-02 16:34:00,80.8,68.8,30.00,NNW,344,3.0,5.0,67,0.00,,FEW,0.00,628.00,VWS V14.01,2013-04-02 20:34:00,
2013-04-02 16:35:00,80.4,68.9,30.00,NW,325,5.0,5.0,68,0.00,,FEW,0.00,624.00,VWS V14.01,2013-04-02 20:35:00,
2013-04-02 16:37:00,80.2,68.7,30.00,NNE,20,3.0,5.0,68,0.00,,FEW,0.00,617.00,VWS V14.01,2013-04-02 20:37:00,
2013-04-02 16:39:00,80.2,69.1,30.00,NNW,333,6.0,6.0,69,0.00,,FEW,0.00,610.00,VWS V14.01,2013-04-02 20:39:00,
2013-04-02 16:41:00,80.4,69.3,30.00,NNW,346,6.0,7.0,69,0.00,,FEW,0.00,605.00,VWS V14.01,2013-04-02 20:41:00,
2013-04-02 16:43:00,80.1,68.6,30.00,North,355,3.0,6.0,68,0.00,,FEW,0.00,598.00,VWS V14.01,2013-04-02 20:43:00,
2013-04-02 16:44:00,79.9,68.4,30.00,NNE,23,4.0,7.0,68,0.00,,FEW,0.00,594.00,VWS V14.01,2013-04-02 20:44:00,
2013-04-02 16:46:00,79.7,68.6,30.00,NNE,15,2.0,7.0,69,0.00,,FEW,0.00,589.00,VWS V14.01,2013-04-02 20:46:00,
2013-04-02 16:48:00,80.0,68.9,30.00,NNE,24,5.0,7.0,69,0.00,,FEW,0.00,582.00,VWS V14.01,2013-04-02 20:48:00,
2013-04-02 16:49:00,79.9,68.4,30.00,NNE,17,4.0,7.0,68,0.00,,FEW,0.00,575.00,VWS V14.01,2013-04-02 20:49:00,
2013-04-02 16:51:00,79.6,68.1,30.00,North,360,3.0,7.0,68,0.00,,FEW,0.00,570.00,VWS V14.01,2013-04-02 20:51:00,
2013-04-02 16:53:00,79.5,68.4,30.00,NW,325,4.0,4.0,69,0.00,,FEW,0.00,566.00,VWS V14.01,2013-04-02 20:53:00,
2013-04-02 16:54:00,79.4,68.3,30.00,NNW,327,4.0,4.0,69,0.00,,FEW,0.00,561.00,VWS V14.01,2013-04-02 20:54:00,
2013-04-02 16:56:00,79.4,68.3,30.00,NNE,24,5.0,5.0,69,0.00,,FEW,0.00,554.00,VWS V14.01,2013-04-02 20:56:00,
2013-04-02 16:58:00,79.5,68.4,30.00,NNE,26,5.0,6.0,69,0.00,,FEW,0.00,547.00,VWS V14.01,2013-04-02 20:58:00,
2013-04-02 17:00:00,79.3,68.3,30.00,NNW,342,4.0,7.0,69,0.00,,FEW,0.00,540.00,VWS V14.01,2013-04-02 21:00:00,
2013-04-02 17:02:00,79.3,68.7,30.00,NNW,327,3.0,7.0,70,0.00,,FEW,0.00,538.00,VWS V14.01,2013-04-02 21:02:00,
2013-04-02 17:03:00,79.5,68.9,30.00,North,355,3.0,5.0,70,0.00,,FEW,0.00,529.00,VWS V14.01,2013-04-02 21:03:00,
2013-04-02 17:05:00,79.8,69.2,30.00,North,355,4.0,5.0,70,0.00,,FEW,0.00,522.00,VWS V14.01,2013-04-02 21:05:00,
2013-04-02 17:06:00,79.8,68.7,30.00,NW,308,3.0,5.0,69,0.00,,FEW,0.00,517.00,VWS V14.01,2013-04-02 21:06:00,
2013-04-02 17:08:00,79.8,68.7,30.00,NE,39,4.0,5.0,69,0.00,,FEW,0.00,512.00,VWS V14.01,2013-04-02 21:08:00,
2013-04-02 17:10:00,79.8,68.3,30.00,North,355,3.0,5.0,68,0.00,,FEW,0.00,506.00,VWS V14.01,2013-04-02 21:10:00,
2013-04-02 17:12:00,79.7,68.2,30.00,North,350,3.0,5.0,68,0.00,,FEW,0.00,499.00,VWS V14.01,2013-04-02 21:12:00,
2013-04-02 17:13:00,79.4,68.3,30.00,NNE,32,3.0,3.0,69,0.00,,FEW,0.00,492.00,VWS V14.01,2013-04-02 21:13:00,
2013-04-02 17:15:00,79.2,68.6,30.00,North,355,2.0,5.0,70,0.00,,FEW,0.00,485.00,VWS V14.01,2013-04-02 21:15:00,
2013-04-02 17:18:00,79.4,68.3,30.00,NE,38,2.0,5.0,69,0.00,,FEW,0.00,475.00,VWS V14.01,2013-04-02 21:18:00,
2013-04-02 17:19:00,79.5,68.4,30.00,NW,311,2.0,5.0,69,0.00,,FEW,0.00,471.00,VWS V14.01,2013-04-02 21:19:00,
2013-04-02 17:20:00,79.6,68.5,30.00,North,355,2.0,5.0,69,0.00,,FEW,0.00,469.00,VWS V14.01,2013-04-02 21:20:00,
2013-04-02 17:23:00,79.5,68.4,30.00,NW,325,3.0,4.0,69,0.00,,FEW,0.00,459.00,VWS V14.01,2013-04-02 21:23:00,
2013-04-02 17:24:00,79.4,68.3,30.00,NNW,338,0.0,4.0,69,0.00,,FEW,0.00,455.00,VWS V14.01,2013-04-02 21:24:00,
2013-04-02 17:25:00,79.4,68.3,30.00,NNW,344,0.0,4.0,69,0.00,,FEW,0.00,452.00,VWS V14.01,2013-04-02 21:25:00,
2013-04-02 17:29:00,79.8,68.7,30.00,SE,145,3.0,4.0,69,0.00,,FEW,0.00,436.00,VWS V14.01,2013-04-02 21:29:00,
2013-04-02 17:32:00,80.1,69.0,30.00,WNW,301,0.0,4.0,69,0.00,,FEW,0.00,425.00,VWS V14.01,2013-04-02 21:32:00,
2013-04-02 17:34:00,80.2,68.7,30.00,West,271,2.0,3.0,68,0.00,,FEW,0.00,420.00,VWS V14.01,2013-04-02 21:34:00,
2013-04-02 17:37:00,80.1,68.6,30.00,NW,307,2.0,3.0,68,0.00,,FEW,0.00,410.00,VWS V14.01,2013-04-02 21:37:00,
2013-04-02 17:39:00,79.8,68.3,30.00,South,173,1.0,3.0,68,0.00,,FEW,0.00,399.00,VWS V14.01,2013-04-02 21:39:00,
2013-04-02 17:42:00,79.5,68.4,30.00,SSE,163,3.0,3.0,69,0.00,,FEW,0.00,392.00,VWS V14.01,2013-04-02 21:42:00,
2013-04-02 17:44:00,79.4,68.8,30.00,SSW,211,4.0,4.0,70,0.00,,FEW,0.00,381.00,VWS V14.01,2013-04-02 21:44:00,
2013-04-02 17:45:00,79.5,68.9,30.00,WNW,294,1.0,5.0,70,0.00,,FEW,0.00,378.00,VWS V14.01,2013-04-02 21:45:00,
2013-04-02 17:47:00,79.6,68.5,30.00,WSW,245,3.0,5.0,69,0.00,,FEW,0.00,371.00,VWS V14.01,2013-04-02 21:47:00,
2013-04-02 17:49:00,79.6,68.1,30.00,NW,304,2.0,5.0,68,0.00,,FEW,0.00,364.00,VWS V14.01,2013-04-02 21:49:00,
2013-04-02 17:50:00,79.6,68.1,30.00,NW,304,1.0,5.0,68,0.00,,FEW,0.00,360.00,VWS V14.01,2013-04-02 21:50:00,
2013-04-02 17:52:00,79.5,68.0,30.00,WNW,302,0.0,0.0,68,0.00,,FEW,0.00,352.00,VWS V14.01,2013-04-02 21:52:00,
2013-04-02 17:54:00,79.4,67.9,30.00,North,355,3.0,5.0,68,0.00,,FEW,0.00,341.00,VWS V14.01,2013-04-02 21:54:00,
2013-04-02 17:55:00,79.4,67.9,30.00,North,360,2.0,5.0,68,0.00,,FEW,0.00,341.00,VWS V14.01,2013-04-02 21:55:00,
2013-04-02 17:57:00,79.5,68.0,30.00,WNW,290,0.0,5.0,68,0.00,,FEW,0.00,329.00,VWS V14.01,2013-04-02 21:57:00,
2013-04-02 17:59:00,79.6,68.1,30.00,WNW,291,2.0,5.0,68,0.00,,FEW,0.00,322.00,VWS V14.01,2013-04-02 21:59:00,
2013-04-02 18:00:00,79.6,68.1,30.00,WNW,294,1.0,5.0,68,0.00,,FEW,0.00,322.00,VWS V14.01,2013-04-02 22:00:00,
2013-04-02 18:02:00,79.5,68.0,30.00,West,279,4.0,6.0,68,0.00,,FEW,0.00,311.00,VWS V14.01,2013-04-02 22:02:00,
2013-04-02 18:05:00,79.4,68.3,30.00,West,270,3.0,6.0,69,0.00,,FEW,0.00,306.00,VWS V14.01,2013-04-02 22:05:00,
2013-04-02 18:07:00,79.3,68.3,30.00,West,261,2.0,6.0,69,0.00,,FEW,0.00,295.00,VWS V14.01,2013-04-02 22:07:00,
2013-04-02 18:10:00,79.1,68.1,30.00,NW,304,3.0,6.0,69,0.00,,FEW,0.00,265.00,VWS V14.01,2013-04-02 22:10:00,
2013-04-02 18:13:00,78.9,67.9,30.00,WNW,289,4.0,4.0,69,0.00,,FEW,0.00,248.00,VWS V14.01,2013-04-02 22:13:00,
2013-04-02 18:15:00,78.8,67.8,30.00,NNW,344,3.0,5.0,69,0.00,,FEW,0.00,267.00,VWS V14.01,2013-04-02 22:15:00,
2013-04-02 18:18:00,78.7,68.1,30.00,WSW,257,4.0,5.0,70,0.00,,FEW,0.00,255.00,VWS V14.01,2013-04-02 22:18:00,
2013-04-02 18:20:00,78.7,68.1,30.00,WNW,290,1.0,5.0,70,0.00,,FEW,0.00,246.00,VWS V14.01,2013-04-02 22:20:00,
2013-04-02 18:23:00,78.6,68.0,30.00,WNW,303,3.0,4.0,70,0.00,,FEW,0.00,234.00,VWS V14.01,2013-04-02 22:23:00,
2013-04-02 18:25:00,78.7,68.1,30.00,NNW,331,2.0,5.0,70,0.00,,FEW,0.00,227.00,VWS V14.01,2013-04-02 22:25:00,
2013-04-02 18:28:00,78.7,68.1,30.00,WNW,300,2.0,5.0,70,0.00,,FEW,0.00,211.00,VWS V14.01,2013-04-02 22:28:00,
2013-04-02 18:30:00,78.6,68.0,30.00,North,349,3.0,5.0,70,0.00,,FEW,0.00,204.00,VWS V14.01,2013-04-02 22:30:00,
2013-04-02 18:33:00,78.6,68.0,30.00,WSW,254,2.0,3.0,70,0.00,,FEW,0.00,193.00,VWS V14.01,2013-04-02 22:33:00,
2013-04-02 18:35:00,78.6,68.0,30.00,West,277,0.0,3.0,70,0.00,,FEW,0.00,186.00,VWS V14.01,2013-04-02 22:35:00,
2013-04-02 18:38:00,78.4,68.2,30.00,WNW,295,0.0,3.0,71,0.00,,FEW,0.00,176.00,VWS V14.01,2013-04-02 22:38:00,
2013-04-02 18:40:00,78.3,68.1,30.00,NNW,330,2.0,3.0,71,0.00,,FEW,0.00,165.00,VWS V14.01,2013-04-02 22:40:00,
2013-04-02 18:43:00,78.3,68.1,30.00,NW,310,0.0,1.0,71,0.00,,FEW,0.00,158.00,VWS V14.01,2013-04-02 22:43:00,
2013-04-02 18:45:00,78.4,68.2,30.00,NW,310,1.0,2.0,71,0.00,,FEW,0.00,120.00,VWS V14.01,2013-04-02 22:45:00,
2013-04-02 18:48:00,78.4,68.2,30.00,WNW,301,2.0,2.0,71,0.00,,FEW,0.00,134.00,VWS V14.01,2013-04-02 22:48:00,
2013-04-02 18:50:00,78.3,68.1,30.00,NW,311,2.0,3.0,71,0.00,,FEW,0.00,132.00,VWS V14.01,2013-04-02 22:50:00,
2013-04-02 18:53:00,78.3,68.5,30.00,NW,325,4.0,4.0,72,0.00,,FEW,0.00,121.00,VWS V14.01,2013-04-02 22:53:00,
2013-04-02 18:56:00,78.2,68.4,30.00,NW,319,1.0,4.0,72,0.00,,FEW,0.00,114.00,VWS V14.01,2013-04-02 22:56:00,
2013-04-02 18:58:00,78.2,68.4,30.00,NNW,327,2.0,4.0,72,0.00,,FEW,0.00,104.00,VWS V14.01,2013-04-02 22:58:00,
2013-04-02 19:01:00,78.1,68.3,30.00,NW,326,2.0,4.0,72,0.00,,FEW,0.00,90.00,VWS V14.01,2013-04-02 23:01:00,
2013-04-02 19:03:00,78.0,68.2,30.00,NNW,338,2.0,4.0,72,0.00,,FEW,0.00,83.00,VWS V14.01,2013-04-02 23:03:00,
2013-04-02 19:06:00,77.9,68.2,30.00,North,355,4.0,4.0,72,0.00,,FEW,0.00,76.00,VWS V14.01,2013-04-02 23:06:00,
2013-04-02 19:08:00,77.8,68.1,30.00,North,355,2.0,4.0,72,0.00,,FEW,0.00,67.00,VWS V14.01,2013-04-02 23:08:00,
2013-04-02 19:11:00,77.7,68.0,30.00,NNW,342,3.0,4.0,72,0.00,,FEW,0.00,58.00,VWS V14.01,2013-04-02 23:11:00,
2013-04-02 19:12:00,77.7,68.0,30.00,NNW,342,2.0,4.0,72,0.00,,FEW,0.00,58.00,VWS V14.01,2013-04-02 23:12:00,
2013-04-02 19:14:00,77.6,68.3,30.00,North,351,3.0,3.0,73,0.00,,FEW,0.00,53.00,VWS V14.01,2013-04-02 23:14:00,
2013-04-02 19:17:00,77.5,68.2,30.00,NNW,348,1.0,4.0,73,0.00,,FEW,0.00,39.00,VWS V14.01,2013-04-02 23:17:00,
2013-04-02 19:19:00,77.4,68.1,30.00,NNW,344,1.0,4.0,73,0.00,,FEW,0.00,35.00,VWS V14.01,2013-04-02 23:19:00,
2013-04-02 19:22:00,77.3,68.0,30.00,North,10,3.0,4.0,73,0.00,,FEW,0.00,30.00,VWS V14.01,2013-04-02 23:22:00,
2013-04-02 19:24:00,77.2,68.3,30.00,NE,39,1.0,4.0,74,0.00,,FEW,0.00,21.00,VWS V14.01,2013-04-02 23:24:00,
2013-04-02 19:27:00,77.0,68.1,30.00,NNE,22,0.0,4.0,74,0.00,,FEW,0.00,16.00,VWS V14.01,2013-04-02 23:27:00,
2013-04-02 19:29:00,77.0,68.1,30.00,NNE,22,2.0,4.0,74,0.00,,FEW,0.00,12.00,VWS V14.01,2013-04-02 23:29:00,
2013-04-02 19:32:00,76.8,68.3,30.01,NNE,22,1.0,4.0,75,0.00,,FEW,0.00,9.00,VWS V14.01,2013-04-02 23:32:00,
2013-04-02 19:34:00,76.7,68.2,30.01,NNE,22,2.0,3.0,75,0.00,,FEW,0.00,7.00,VWS V14.01,2013-04-02 23:34:00,
2013-04-02 19:37:00,76.6,68.1,30.01,NNE,22,2.0,3.0,75,0.00,,FEW,0.00,5.00,VWS V14.01,2013-04-02 23:37:00,
2013-04-02 19:39:00,76.4,67.9,30.01,NNE,22,3.0,3.0,75,0.00,,FEW,0.00,0.00,VWS V14.01,2013-04-02 23:39:00,
2013-04-02 19:42:00,76.3,67.8,30.01,NNE,22,2.0,3.0,75,0.00,,FEW,0.00,0.00,VWS V14.01,2013-04-02 23:42:00,
2013-04-02 19:44:00,76.2,68.1,30.01,NNE,22,2.0,2.0,76,0.00,,FEW,0.00,0.00,VWS V14.01,2013-04-02 23:44:00,
2013-04-02 19:47:00,76.1,68.0,30.00,NNE,22,1.0,2.0,76,0.00,,FEW,0.00,0.00,VWS V14.01,2013-04-02 23:47:00,
2013-04-02 19:48:00,76.0,67.9,30.00,NNE,22,1.0,2.0,76,0.00,,FEW,0.00,0.00,VWS V14.01,2013-04-02 23:48:00,
2013-04-02 19:49:00,76.0,67.9,30.00,NNE,22,1.0,3.0,76,0.00,,FEW,0.00,0.00,VWS V14.01,2013-04-02 23:49:00,
2013-04-02 19:52:00,75.9,67.8,30.00,NNE,22,2.0,2.0,76,0.00,,FEW,0.00,0.00,VWS V14.01,2013-04-02 23:52:00,
2013-04-02 19:53:00,75.9,67.8,30.00,NNE,22,1.0,2.0,76,0.00,,FEW,0.00,0.00,VWS V14.01,2013-04-02 23:53:00,
2013-04-02 19:54:00,75.8,67.7,30.00,NNE,22,1.0,3.0,76,0.00,,FEW,0.00,0.00,VWS V14.01,2013-04-02 23:54:00,
2013-04-02 19:57:00,75.7,67.6,30.00,NNE,22,0.0,3.0,76,0.00,,FEW,0.00,0.00,VWS V14.01,2013-04-02 23:57:00,
2013-04-02 19:58:00,75.7,67.6,30.00,NNE,22,1.0,3.0,76,0.00,,FEW,0.00,0.00,VWS V14.01,2013-04-02 23:58:00,
2013-04-02 19:59:00,75.7,68.0,30.00,NNE,22,1.0,3.0,77,0.00,,FEW,0.00,0.00,VWS V14.01,2013-04-02 23:59:00,
2013-04-02 20:02:00,75.6,67.9,30.01,NNE,22,2.0,2.0,77,0.00,,FEW,0.00,0.00,VWS V14.01,2013-04-03 00:02:00,
2013-04-02 20:03:00,75.6,67.9,30.01,NNE,22,1.0,2.0,77,0.00,,FEW,0.00,0.00,VWS V14.01,2013-04-03 00:03:00,
2013-04-02 20:04:00,75.5,67.8,30.01,NNE,22,1.0,2.0,77,0.00,,FEW,0.00,0.00,VWS V14.01,2013-04-03 00:04:00,
2013-04-02 20:08:00,75.4,67.7,30.01,NNE,22,1.0,2.0,77,0.00,,FEW,0.00,0.00,VWS V14.01,2013-04-03 00:08:00,
2013-04-02 20:10:00,75.3,67.6,30.01,NNE,20,1.0,3.0,77,0.00,,FEW,0.00,0.00,VWS V14.01,2013-04-03 00:10:00,
2013-04-02 20:13:00,75.3,68.0,30.01,North,9,1.0,3.0,78,0.00,,FEW,0.00,0.00,VWS V14.01,2013-04-03 00:13:00,
2013-04-02 20:15:00,75.2,67.9,30.01,North,5,4.0,4.0,78,0.00,,FEW,0.00,0.00,VWS V14.01,2013-04-03 00:15:00,
2013-04-02 20:18:00,75.1,67.8,30.02,North,5,2.0,4.0,78,0.00,,FEW,0.00,0.00,VWS V14.01,2013-04-03 00:18:00,
2013-04-02 20:20:00,75.0,67.7,30.02,NNE,15,0.0,4.0,78,0.00,,FEW,0.00,0.00,VWS V14.01,2013-04-03 00:20:00,
2013-04-02 20:23:00,74.9,67.6,30.02,NNE,28,2.0,4.0,78,0.00,,FEW,0.00,0.00,VWS V14.01,2013-04-03 00:23:00,
2013-04-02 20:25:00,74.8,67.9,30.02,NNE,18,1.0,4.0,79,0.00,,FEW,0.00,0.00,VWS V14.01,2013-04-03 00:25:00,
2013-04-02 20:28:00,74.8,67.9,30.02,NNE,18,2.0,4.0,79,0.00,,FEW,0.00,0.00,VWS V14.01,2013-04-03 00:28:00,
2013-04-02 20:29:00,74.7,67.8,30.02,NNE,15,1.0,4.0,79,0.00,,FEW,0.00,0.00,VWS V14.01,2013-04-03 00:29:00,
2013-04-02 20:30:00,74.7,67.8,30.02,North,9,1.0,4.0,79,0.00,,FEW,0.00,0.00,VWS V14.01,2013-04-03 00:30:00,
2013-04-02 20:33:00,74.6,67.7,30.02,North,360,1.0,4.0,79,0.00,,FEW,0.00,0.00,VWS V14.01,2013-04-03 00:33:00,
2013-04-02 20:34:00,74.6,67.7,30.02,North,360,1.0,4.0,79,0.00,,FEW,0.00,0.00,VWS V14.01,2013-04-03 00:34:00,
2013-04-02 20:35:00,74.6,68.0,30.02,North,11,3.0,4.0,80,0.00,,FEW,0.00,0.00,VWS V14.01,2013-04-03 00:35:00,
2013-04-02 20:38:00,74.5,67.9,30.02,NNE,20,1.0,4.0,80,0.00,,FEW,0.00,0.00,VWS V14.01,2013-04-03 00:38:00,
2013-04-02 20:39:00,74.5,67.9,30.02,NNW,346,3.0,4.0,80,0.00,,FEW,0.00,0.00,VWS V14.01,2013-04-03 00:39:00,
2013-04-02 20:40:00,74.5,67.9,30.02,NNW,342,3.0,4.0,80,0.00,,FEW,0.00,0.00,VWS V14.01,2013-04-03 00:40:00,
2013-04-02 20:43:00,74.5,68.3,30.02,NNE,22,0.0,4.0,81,0.00,,FEW,0.00,0.00,VWS V14.01,2013-04-03 00:43:00,
2013-04-02 20:44:00,74.4,68.2,30.02,NNE,18,2.0,4.0,81,0.00,,FEW,0.00,0.00,VWS V14.01,2013-04-03 00:44:00,
2013-04-02 20:46:00,74.4,68.2,30.02,North,11,2.0,4.0,81,0.00,,FEW,0.00,0.00,VWS V14.01,2013-04-03 00:46:00,
2013-04-02 20:48:00,74.3,68.1,30.03,NNE,17,2.0,4.0,81,0.00,,FEW,0.00,0.00,VWS V14.01,2013-04-03 00:48:00,
2013-04-02 20:49:00,74.3,68.1,30.03,NNE,24,3.0,4.0,81,0.00,,FEW,0.00,0.00,VWS V14.01,2013-04-03 00:49:00,
2013-04-02 20:52:00,74.2,68.0,30.03,NNE,17,4.0,5.0,81,0.00,,FEW,0.00,0.00,VWS V14.01,2013-04-03 00:52:00,
2013-04-02 20:53:00,74.2,68.4,30.03,NNE,21,2.0,3.0,82,0.00,,FEW,0.00,0.00,VWS V14.01,2013-04-03 00:53:00,
2013-04-02 20:54:00,74.2,68.4,30.03,NNE,23,2.0,4.0,82,0.00,,FEW,0.00,0.00,VWS V14.01,2013-04-03 00:54:00,
2013-04-02 20:57:00,74.1,68.3,30.03,NNE,31,1.0,5.0,82,0.00,,FEW,0.00,0.00,VWS V14.01,2013-04-03 00:57:00,
2013-04-02 20:58:00,74.1,68.3,30.03,North,355,3.0,5.0,82,0.00,,FEW,0.00,0.00,VWS V14.01,2013-04-03 00:58:00,
2013-04-02 20:59:00,74.1,68.3,30.03,North,5,2.0,5.0,82,0.00,,FEW,0.00,0.00,VWS V14.01,2013-04-03 00:59:00,
2013-04-02 21:02:00,74.0,68.2,30.03,NNE,13,1.0,2.0,82,0.00,,FEW,0.00,0.00,VWS V14.01,2013-04-03 01:02:00,
2013-04-02 21:04:00,74.0,68.2,30.03,NNE,14,2.0,4.0,82,0.00,,FEW,0.00,0.00,VWS V14.01,2013-04-03 01:04:00,
2013-04-02 21:07:00,73.9,68.1,30.03,NNE,18,3.0,4.0,82,0.00,,FEW,0.00,0.00,VWS V14.01,2013-04-03 01:07:00,
2013-04-02 21:09:00,73.9,68.4,30.03,NNE,26,3.0,5.0,83,0.00,,FEW,0.00,0.00,VWS V14.01,2013-04-03 01:09:00,
2013-04-02 21:12:00,73.9,68.4,30.03,NNE,28,2.0,5.0,83,0.00,,FEW,0.00,0.00,VWS V14.01,2013-04-03 01:12:00,
2013-04-02 21:14:00,73.9,68.4,30.03,NNE,31,4.0,5.0,83,0.00,,FEW,0.00,0.00,VWS V14.01,2013-04-03 01:14:00,
2013-04-02 21:15:00,73.9,68.4,30.03,North,355,5.0,5.0,83,0.00,,FEW,0.00,0.00,VWS V14.01,2013-04-03 01:15:00,
2013-04-02 21:17:00,73.8,68.3,30.03,NNE,21,2.0,5.0,83,0.00,,FEW,0.00,0.00,VWS V14.01,2013-04-03 01:17:00,
2013-04-02 21:20:00,73.8,68.3,30.03,NNE,19,2.0,5.0,83,0.00,,FEW,0.00,0.00,VWS V14.01,2013-04-03 01:20:00,
2013-04-02 21:21:00,73.8,68.3,30.03,NE,43,3.0,5.0,83,0.00,,FEW,0.00,0.00,VWS V14.01,2013-04-03 01:21:00,
2013-04-02 21:23:00,73.8,68.3,30.03,NNE,30,2.0,3.0,83,0.00,,FEW,0.00,0.00,VWS V14.01,2013-04-03 01:23:00,
2013-04-02 21:25:00,73.7,68.2,30.03,NNE,27,5.0,5.0,83,0.00,,FEW,0.00,0.00,VWS V14.01,2013-04-03 01:25:00,
2013-04-02 21:26:00,73.7,68.2,30.03,NNE,19,2.0,5.0,83,0.00,,FEW,0.00,0.00,VWS V14.01,2013-04-03 01:26:00,
2013-04-02 21:28:00,73.7,68.2,30.03,NNE,25,3.0,5.0,83,0.00,,FEW,0.00,0.00,VWS V14.01,2013-04-03 01:28:00,
2013-04-02 21:30:00,73.6,68.1,30.03,North,9,2.0,5.0,83,0.00,,FEW,0.00,0.00,VWS V14.01,2013-04-03 01:30:00,
2013-04-02 21:31:00,73.6,68.1,30.03,NNE,12,3.0,5.0,83,0.00,,FEW,0.00,0.00,VWS V14.01,2013-04-03 01:31:00,
2013-04-02 21:33:00,73.6,68.1,30.03,North,10,5.0,5.0,83,0.00,,FEW,0.00,0.00,VWS V14.01,2013-04-03 01:33:00,
2013-04-02 21:35:00,73.6,68.1,30.03,NNE,19,3.0,5.0,83,0.00,,FEW,0.00,0.00,VWS V14.01,2013-04-03 01:35:00,
2013-04-02 21:37:00,73.5,68.0,30.03,North,349,4.0,5.0,83,0.00,,FEW,0.00,0.00,VWS V14.01,2013-04-03 01:37:00,
2013-04-02 21:38:00,73.6,68.1,30.03,NNE,33,3.0,5.0,83,0.00,,FEW,0.00,0.00,VWS V14.01,2013-04-03 01:38:00,
2013-04-02 21:40:00,73.6,68.1,30.03,NNE,20,1.0,5.0,83,0.00,,FEW,0.00,0.00,VWS V14.01,2013-04-03 01:40:00,
2013-04-02 21:42:00,73.5,68.0,30.03,NE,39,2.0,4.0,83,0.00,,FEW,0.00,0.00,VWS V14.01,2013-04-03 01:42:00,
2013-04-02 21:43:00,73.5,68.0,30.03,NNE,22,4.0,5.0,83,0.00,,FEW,0.00,0.00,VWS V14.01,2013-04-03 01:43:00,
2013-04-02 21:45:00,73.5,68.0,30.03,North,5,3.0,5.0,83,0.00,,FEW,0.00,0.00,VWS V14.01,2013-04-03 01:45:00,
2013-04-02 21:47:00,73.5,68.0,30.05,NNE,13,1.0,5.0,83,0.00,,FEW,0.00,0.00,VWS V14.01,2013-04-03 01:47:00,
2013-04-02 21:48:00,73.5,68.0,30.05,NNE,16,2.0,5.0,83,0.00,,FEW,0.00,0.00,VWS V14.01,2013-04-03 01:48:00,
2013-04-02 21:50:00,73.5,68.0,30.05,NE,49,1.0,5.0,83,0.00,,FEW,0.00,0.00,VWS V14.01,2013-04-03 01:50:00,
2013-04-02 21:53:00,73.5,68.0,30.05,NE,46,1.0,3.0,83,0.00,,FEW,0.00,0.00,VWS V14.01,2013-04-03 01:53:00,
2013-04-02 21:55:00,73.5,68.0,30.05,NNE,30,0.0,3.0,83,0.00,,FEW,0.00,0.00,VWS V14.01,2013-04-03 01:55:00,
2013-04-02 21:58:00,73.5,68.0,30.05,NE,36,1.0,3.0,83,0.00,,FEW,0.00,0.00,VWS V14.01,2013-04-03 01:58:00,
2013-04-02 22:00:00,73.5,68.4,30.05,NE,35,1.0,3.0,84,0.00,,FEW,0.00,0.00,VWS V14.01,2013-04-03 02:00:00,
2013-04-02 22:03:00,73.5,68.4,30.05,NE,36,0.0,1.0,84,0.00,,FEW,0.00,0.00,VWS V14.01,2013-04-03 02:03:00,
2013-04-02 22:06:00,73.5,68.4,30.05,NE,34,0.0,3.0,84,0.00,,FEW,0.00,0.00,VWS V14.01,2013-04-03 02:06:00,
2013-04-02 22:08:00,73.5,68.4,30.05,NE,34,0.0,3.0,84,0.00,,FEW,0.00,0.00,VWS V14.01,2013-04-03 02:08:00,
2013-04-02 22:09:00,73.5,68.4,30.05,NE,34,1.0,3.0,84,0.00,,FEW,0.00,0.00,VWS V14.01,2013-04-03 02:09:00,
2013-04-02 22:11:00,73.5,68.4,30.05,NE,34,1.0,3.0,84,0.00,,FEW,0.00,0.00,VWS V14.01,2013-04-03 02:11:00,
2013-04-02 22:13:00,73.5,68.4,30.05,NE,34,1.0,2.0,84,0.00,,FEW,0.00,0.00,VWS V14.01,2013-04-03 02:13:00,
2013-04-02 22:14:00,73.5,68.4,30.05,NE,34,0.0,2.0,84,0.00,,FEW,0.00,0.00,VWS V14.01,2013-04-03 02:14:00,
2013-04-02 22:16:00,73.4,68.3,30.05,NE,34,0.0,2.0,84,0.00,,FEW,0.00,0.00,VWS V14.01,2013-04-03 02:16:00,
2013-04-02 22:19:00,73.4,68.3,30.05,NE,34,2.0,3.0,84,0.00,,FEW,0.00,0.00,VWS V14.01,2013-04-03 02:19:00,
2013-04-02 22:21:00,73.4,68.3,30.05,NNE,31,1.0,3.0,84,0.00,,FEW,0.00,0.00,VWS V14.01,2013-04-03 02:21:00,
2013-04-02 22:24:00,73.3,68.2,30.05,NNE,31,2.0,2.0,84,0.00,,FEW,0.00,0.00,VWS V14.01,2013-04-03 02:24:00,
2013-04-02 22:27:00,73.3,68.2,30.05,NNE,31,0.0,2.0,84,0.00,,FEW,0.00,0.00,VWS V14.01,2013-04-03 02:27:00,
2013-04-02 22:29:00,73.3,68.2,30.05,NNE,31,0.0,2.0,84,0.00,,FEW,0.00,0.00,VWS V14.01,2013-04-03 02:29:00,
2013-04-02 22:32:00,73.3,68.2,30.06,NNE,31,0.0,2.0,84,0.00,,FEW,0.00,0.00,VWS V14.01,2013-04-03 02:32:00,
2013-04-02 22:34:00,73.3,68.2,30.06,NNE,31,0.0,0.0,84,0.00,,FEW,0.00,0.00,VWS V14.01,2013-04-03 02:34:00,
2013-04-02 22:35:00,73.3,68.2,30.06,NNE,31,0.0,0.0,84,0.00,,FEW,0.00,0.00,VWS V14.01,2013-04-03 02:35:00,
2013-04-02 22:37:00,73.3,68.2,30.06,NNE,31,1.0,1.0,84,0.00,,FEW,0.00,0.00,VWS V14.01,2013-04-03 02:37:00,
2013-04-02 22:39:00,73.3,68.2,30.06,NNE,31,0.0,2.0,84,0.00,,FEW,0.00,0.00,VWS V14.01,2013-04-03 02:39:00,
2013-04-02 22:40:00,73.2,68.1,30.06,NNE,31,1.0,2.0,84,0.00,,FEW,0.00,0.00,VWS V14.01,2013-04-03 02:40:00,
2013-04-02 22:42:00,73.2,68.1,30.06,NNE,31,0.0,2.0,84,0.00,,FEW,0.00,0.00,VWS V14.01,2013-04-03 02:42:00,
2013-04-02 22:44:00,73.2,68.4,30.06,NNE,31,0.0,1.0,85,0.00,,FEW,0.00,0.00,VWS V14.01,2013-04-03 02:44:00,
2013-04-02 22:45:00,73.2,68.4,30.06,NNE,31,0.0,1.0,85,0.00,,FEW,0.00,0.00,VWS V14.01,2013-04-03 02:45:00,
2013-04-02 22:47:00,73.3,68.5,30.06,NNE,31,0.0,1.0,85,0.00,,FEW,0.00,0.00,VWS V14.01,2013-04-03 02:47:00,
2013-04-02 22:50:00,73.3,68.5,30.06,NNE,31,0.0,1.0,85,0.00,,FEW,0.00,0.00,VWS V14.01,2013-04-03 02:50:00,
2013-04-02 22:52:00,73.2,68.4,30.06,NNE,31,0.0,1.0,85,0.00,,FEW,0.00,0.00,VWS V14.01,2013-04-03 02:52:00,
2013-04-02 22:55:00,73.3,68.5,30.06,NNE,31,1.0,1.0,85,0.00,,FEW,0.00,0.00,VWS V14.01,2013-04-03 02:55:00,
2013-04-02 22:57:00,73.3,68.5,30.06,NNE,31,0.0,1.0,85,0.00,,FEW,0.00,0.00,VWS V14.01,2013-04-03 02:57:00,
2013-04-02 23:00:00,73.2,68.4,30.06,NNE,31,0.0,1.0,85,0.00,,FEW,0.00,0.00,VWS V14.01,2013-04-03 03:00:00,
2013-04-02 23:02:00,73.2,68.4,30.06,NNE,31,0.0,0.0,85,0.00,,FEW,0.00,0.00,VWS V14.01,2013-04-03 03:02:00,
2013-04-02 23:05:00,73.2,68.4,30.06,NNE,31,1.0,1.0,85,0.00,,FEW,0.00,0.00,VWS V14.01,2013-04-03 03:05:00,
2013-04-02 23:07:00,73.1,68.3,30.06,NNE,31,0.0,1.0,85,0.00,,FEW,0.00,0.00,VWS V14.01,2013-04-03 03:07:00,
2013-04-02 23:10:00,73.1,68.3,30.06,NNE,31,0.0,1.0,85,0.00,,FEW,0.00,0.00,VWS V14.01,2013-04-03 03:10:00,
2013-04-02 23:11:00,73.1,68.3,30.06,NNE,31,0.0,1.0,85,0.00,,FEW,0.00,0.00,VWS V14.01,2013-04-03 03:11:00,
2013-04-02 23:13:00,73.1,68.3,30.06,NNE,31,0.0,1.0,85,0.00,,FEW,0.00,0.00,VWS V14.01,2013-04-03 03:13:00,
2013-04-02 23:15:00,73.1,68.3,30.06,NNE,31,0.0,1.0,85,0.00,,FEW,0.00,0.00,VWS V14.01,2013-04-03 03:15:00,
2013-04-02 23:16:00,73.1,68.3,30.06,NNE,31,1.0,1.0,85,0.00,,FEW,0.00,0.00,VWS V14.01,2013-04-03 03:16:00,
2013-04-02 23:18:00,73.1,68.3,30.06,NNE,31,0.0,1.0,85,0.00,,FEW,0.00,0.00,VWS V14.01,2013-04-03 03:18:00,
2013-04-02 23:20:00,73.1,68.3,30.06,NNE,31,0.0,1.0,85,0.00,,FEW,0.00,0.00,VWS V14.01,2013-04-03 03:20:00,
2013-04-02 23:22:00,73.0,68.2,30.06,NNE,31,1.0,1.0,85,0.00,,FEW,0.00,0.00,VWS V14.01,2013-04-03 03:22:00,
2013-04-02 23:23:00,73.0,68.2,30.06,NNE,31,1.0,1.0,85,0.00,,FEW,0.00,0.00,VWS V14.01,2013-04-03 03:23:00,
2013-04-02 23:25:00,73.0,68.2,30.06,NNE,31,1.0,2.0,85,0.00,,FEW,0.00,0.00,VWS V14.01,2013-04-03 03:25:00,
2013-04-02 23:27:00,73.0,68.2,30.06,ENE,59,1.0,3.0,85,0.00,,FEW,0.00,0.00,VWS V14.01,2013-04-03 03:27:00,
2013-04-02 23:28:00,73.0,68.2,30.06,ENE,57,1.0,3.0,85,0.00,,FEW,0.00,0.00,VWS V14.01,2013-04-03 03:28:00,
2013-04-02 23:31:00,73.1,68.3,30.06,ENE,57,2.0,3.0,85,0.00,,FEW,0.00,0.00,VWS V14.01,2013-04-03 03:31:00,
2013-04-02 23:32:00,73.0,68.2,30.06,ENE,57,1.0,3.0,85,0.00,,FEW,0.00,0.00,VWS V14.01,2013-04-03 03:32:00,
2013-04-02 23:33:00,73.1,68.7,30.06,ENE,60,3.0,3.0,86,0.00,,FEW,0.00,0.00,VWS V14.01,2013-04-03 03:33:00,
2013-04-02 23:36:00,73.1,68.7,30.06,ENE,63,1.0,3.0,86,0.00,,FEW,0.00,0.00,VWS V14.01,2013-04-03 03:36:00,
2013-04-02 23:38:00,73.1,68.7,30.06,ENE,63,1.0,3.0,86,0.00,,FEW,0.00,0.00,VWS V14.01,2013-04-03 03:38:00,
2013-04-02 23:42:00,73.1,68.7,30.06,ENE,73,1.0,3.0,86,0.00,,FEW,0.00,0.00,VWS V14.01,2013-04-03 03:42:00,
2013-04-02 23:43:00,73.1,68.7,30.06,ENE,73,0.0,1.0,86,0.00,,FEW,0.00,0.00,VWS V14.01,2013-04-03 03:43:00,
2013-04-02 23:47:00,73.2,68.8,30.05,NE,47,1.0,2.0,86,0.00,,FEW,0.00,0.00,VWS V14.01,2013-04-03 03:47:00,
2013-04-02 23:48:00,73.2,68.8,30.05,NE,47,0.0,2.0,86,0.00,,FEW,0.00,0.00,VWS V14.01,2013-04-03 03:48:00,
2013-04-02 23:49:00,73.2,68.8,30.05,NE,47,0.0,2.0,86,0.00,,FEW,0.00,0.00,VWS V14.01,2013-04-03 03:49:00,
2013-04-02 23:52:00,73.2,68.8,30.05,NE,47,0.0,3.0,86,0.00,,FEW,0.00,0.00,VWS V14.01,2013-04-03 03:52:00,
2013-04-02 23:53:00,73.2,68.8,30.05,NE,56,2.0,2.0,86,0.00,,FEW,0.00,0.00,VWS V14.01,2013-04-03 03:53:00,
2013-04-02 23:54:00,73.2,68.8,30.05,NE,56,1.0,2.0,86,0.00,,FEW,0.00,0.00,VWS V14.01,2013-04-03 03:54:00,
2013-04-02 23:58:00,73.2,68.8,30.05,NE,54,1.0,2.0,86,0.00,,FEW,0.00,0.00,VWS V14.01,2013-04-03 03:58:00,
2013-04-02 23:59:00,73.2,68.8,30.05,NE,54,1.0,2.0,86,0.00,,FEW,0.00,0.00,VWS V14.01,2013-04-03 03:59:00,